GFSGL_850_dewp_075.txt.gz
Dewpoint
8 9 9 9 9 9 9 9 8 8 8 8 7 7 5 4 5 5 5 5 5 5 6 7 7 7 7 8 8 8 8 8 7 6 6 7 7 6 6 6 4 3 3
7 8 9 9 9 9 9 9 9 8 9 8 8 7 7 7 6 6 5 6 6 7 7 8 7 6 6 7 8 8 8 8 7 5 6 7 7 6 6 4 4 3 3
8 8 8 8 8 7 7 8 9 9 9 8 8 8 7 7 8 7 7 7 7 7 7 7 7 7 7 6 8 8 7 7 6 5 6 6 6 5 4 4 4 3 2
8 8 8 8 7 7 7 8 9 9 9 8 8 8 8 8 8 7 7 7 7 7 7 7 7 6 5 6 7 6 4 5 7 7 6 5 5 4 4 4 3 2 -1
9 9 9 8 8 9 8 8 8 8 8 8 8 8 8 8 8 8 7 7 7 7 7 7 7 6 3 4 7 6 7 6 6 6 5 5 4 3 3 3 1 -3 -5
9 9 9 9 9 9 9 8 8 8 8 8 8 8 8 8 8 8 8 8 7 7 5 5 3 3 5 7 8 8 8 8 7 7 5 4 4 3 3 1 -3 -5 -11
9 9 9 9 9 9 9 9 9 8 8 7 7 7 8 8 7 7 5 6 5 4 3 4 6 8 8 9 8 8 8 7 6 6 5 3 2 1 0 -3 -6 -12 -12
8 9 9 9 9 9 9 9 9 9 8 8 8 8 8 8 8 8 7 7 5 7 6 8 9 9 9 8 8 7 6 3 2 2 2 1 1 -1 -3 -9 -13 -12 -11
7 8 8 8 8 9 9 9 9 9 9 9 9 8 8 8 8 8 8 8 8 8 8 9 9 8 7 7 6 5 2 1 1 0 -0 -1 -2 -4 -14 -25 -29 -20 -16
6 7 8 8 8 8 8 9 9 9 9 9 9 8 8 8 8 9 9 8 8 8 8 7 6 5 4 4 2 1 1 0 -1 -1 -2 -4 -14 -29 -35 -36 -35 -23 -16
4 6 7 8 8 8 8 9 9 10 9 9 9 9 8 9 9 8 8 8 8 7 6 5 3 1 1 -0 -1 -1 -1 -2 -3 -5 -9 -27 -30 -30 -32 -30 -27 -25 -22
6 5 7 8 8 9 9 10 10 9 9 8 9 9 8 8 8 8 8 6 5 4 4 1 -0 -1 -1 -1 -2 -3 -5 -8 -14 -27 -31 -27 -19 -16 -17 -16 -14 -12 -14
8 8 8 8 9 9 9 10 10 9 9 8 8 8 8 8 5 4 4 3 1 1 0 -1 -2 -2 -2 -2 -3 -6 -13 -27 -33 -29 -24 -19 -14 -11 -10 -11 -15 -20 -20
7 8 8 9 9 9 9 9 9 9 8 8 7 6 6 4 2 1 1 0 -1 -1 -2 -3 -3 -3 -4 -7 -13 -16 -24 -18 -10 -9 -8 -9 -9 -10 -11 -13 -12 -12 -12
5 4 5 6 7 8 6 6 4 5 5 5 5 2 3 1 -0 -1 -1 -2 -2 -2 -3 -4 -4 -5 -8 -8 -8 -8 -8 -9 -9 -10 -10 -11 -12 -13 -13 -13 -13 -13 -13
3 2 1 1 1 3 3 1 1 1 1 1 1 -1 -2 -2 -2 -3 -3 -3 -3 -4 -5 -6 -8 -9 -9 -10 -10 -11 -11 -11 -12 -12 -13 -13 -14 -14 -14 -14 -14 -14 -14
3 2 1 -2 -1 -2 -2 -1 -1 -3 -4 -4 -3 -4 -4 -6 -5 -5 -5 -6 -7 -8 -8 -9 -9 -10 -10 -11 -11 -12 -13 -13 -14 -14 -15 -15 -15 -15 -15 -15 -15 -15 -14
-1 -1 -0 -1 -4 -5 -4 -5 -5 -5 -6 -7 -7 -7 -7 -7 -8 -8 -8 -8 -8 -9 -9 -10 -11 -11 -12 -13 -13 -14 -14 -14 -15 -15 -16 -16 -16 -16 -16 -16 -16 -16 -16
-3 -5 -5 -4 -5 -6 -6 -6 -7 -7 -8 -9 -9 -9 -8 -8 -9 -9 -10 -10 -11 -11 -12 -12 -13 -13 -14 -14 -15 -15 -16 -16 -16 -17 -17 -17 -17 -17 -17 -17 -17 -17 -17
-7 -7 -8 -8 -8 -8 -7 -8 -8 -9 -10 -11 -11 -11 -11 -11 -11 -11 -12 -12 -13 -13 -14 -14 -15 -15 -16 -16 -16 -17 -17 -17 -17 -17 -18 -18 -18 -19 -18 -18 -18 -18 -18
-7 -7 -8 -8 -8 -9 -9 -9 -10 -10 -11 -11 -12 -12 -12 -12 -13 -13 -13 -14 -14 -15 -15 -16 -16 -17 -17 -17 -18 -18 -18 -19 -19 -19 -19 -19 -19 -20 -20 -19 -19 -19 -19
-7 -8 -8 -9 -9 -10 -11 -11 -11 -11 -12 -12 -13 -13 -13 -14 -14 -15 -15 -15 -17 -18 -18 -18 -18 -19 -19 -19 -20 -20 -20 -20 -20 -20 -20 -21 -21 -20 -20 -20 -20 -20 -19
-10 -10 -10 -11 -11 -11 -12 -13 -13 -14 -14 -15 -15 -15 -15 -16 -17 -17 -18 -18 -19 -20 -25 -24 -22 -23 -21 -24 -24 -21 -21 -21 -22 -22 -22 -22 -22 -21 -21 -21 -20 -20 -20
-13 -13 -13 -13 -14 -14 -15 -15 -15 -15 -16 -16 -17 -17 -18 -18 -18 -19 -19 -22 -21 -20 -22 -25 -25 -25 -26 -26 -26 -25 -24 -23 -25 -25 -24 -23 -23 -22 -22 -22 -21 -21 -21
-15 -15 -15 -16 -16 -16 -16 -17 -17 -17 -17 -18 -18 -18 -19 -19 -19 -20 -21 -21 -26 -27 -26 -26 -26 -26 -26 -26 -26 -26 -26 -26 -26 -25 -24 -22 -22 -23 -22 -22 -21 -21 -21
-18 -17 -17 -17 -18 -18 -18 -18 -18 -19 -19 -19 -20 -20 -20 -20 -21 -21 -23 -24 -27 -27 -27 -26 -26 -26 -26 -26 -25 -26 -26 -26 -24 -23 -22 -22 -22 -23 -22 -22 -22 -22 -21

GFSGL_850_dewp_078.txt.gz
Dewpoint
9 9 8 8 9 9 9 9 9 9 9 8 8 5 4 3 3 5 3 3 5 5 5 5 5 4 4 6 6 6 6 6 7 7 7 8 8 6 7 6 5 6 6
8 8 9 9 9 8 9 9 9 9 9 9 9 8 7 7 5 5 5 4 4 5 5 6 5 5 4 6 7 6 6 6 6 8 7 8 7 6 6 6 6 6 6
7 8 9 8 9 9 9 9 9 9 9 9 8 8 8 7 6 5 4 4 5 6 7 7 7 7 5 6 8 7 6 5 6 7 7 7 6 6 5 5 6 6 5
8 8 8 8 8 8 8 9 9 9 9 9 9 9 8 7 7 6 7 7 6 5 6 7 7 7 7 8 8 7 6 6 7 6 6 7 6 6 6 6 6 5 4
9 9 8 8 8 9 8 9 9 9 10 9 9 9 8 8 8 8 7 7 7 7 7 7 7 7 6 5 6 7 6 7 5 7 6 7 6 6 6 6 5 4 3
9 9 9 8 8 9 9 9 9 8 8 9 9 9 9 8 8 8 7 7 8 8 8 8 8 7 7 6 6 7 7 6 6 7 7 6 7 6 6 5 3 2 1
8 9 9 9 9 9 9 10 9 9 9 8 9 9 9 9 8 8 8 8 8 8 8 8 7 7 7 7 7 7 7 7 7 7 6 5 4 4 3 2 1 -1 -1
7 8 9 10 10 10 10 10 10 9 9 9 9 9 9 9 9 9 9 9 9 9 9 8 8 8 7 6 6 8 8 6 7 5 4 4 2 1 1 1 0 -1 -2
1 7 8 9 10 10 10 10 10 10 10 9 9 9 9 9 9 9 9 9 8 8 8 8 8 8 7 7 8 6 5 4 3 2 1 1 0 -0 -1 -1 -2 -5 -9
7 4 5 8 8 9 9 10 10 10 10 10 9 9 9 9 8 9 9 9 8 8 8 8 8 8 8 7 6 4 3 2 0 -0 -1 -1 -2 -2 -2 -6 -12 -21 -25
8 8 4 6 9 8 9 9 9 10 10 10 10 9 9 9 9 9 9 8 8 8 8 8 7 7 6 5 2 1 0 -1 -2 -2 -3 -4 -6 -10 -16 -29 -34 -35 -31
7 8 8 7 8 8 9 9 9 9 10 10 10 10 9 9 9 9 9 9 9 8 8 6 4 3 1 -0 -1 -2 -2 -2 -3 -4 -6 -10 -15 -21 -22 -11 -7 -9 -11
6 7 8 8 9 9 9 9 9 9 10 10 10 9 9 8 8 8 7 8 7 5 3 1 -1 -2 -2 -2 -2 -3 -3 -4 -7 -8 -10 -14 -13 -9 -8 -9 -9 -9 -11
3 4 5 6 7 8 9 9 10 10 10 9 9 8 7 6 4 3 1 1 2 1 -2 -3 -4 -4 -4 -4 -5 -5 -7 -11 -11 -9 -8 -8 -9 -9 -10 -11 -11 -12 -12
3 3 3 2 2 2 3 5 6 6 6 6 5 3 1 -1 -4 -3 -1 -3 -3 -4 -5 -5 -5 -6 -6 -7 -8 -9 -8 -8 -9 -9 -10 -10 -11 -12 -12 -13 -13 -13 -14
2 2 1 1 -1 -1 -3 -2 -2 -1 -1 0 -1 -0 -4 -2 -3 -4 -4 -5 -5 -6 -6 -7 -8 -9 -9 -9 -9 -9 -10 -10 -11 -12 -12 -13 -13 -14 -14 -15 -15 -15 -15
0 0 -1 -2 -2 -5 -5 -8 -8 -6 -5 -5 -6 -6 -6 -6 -5 -6 -6 -6 -8 -7 -7 -9 -9 -9 -10 -10 -11 -11 -12 -12 -13 -14 -14 -15 -15 -16 -16 -16 -17 -17 -16
-3 -4 -4 -4 -5 -6 -6 -8 -8 -9 -9 -9 -9 -8 -8 -8 -8 -8 -8 -7 -8 -8 -9 -10 -10 -11 -11 -12 -12 -13 -13 -14 -15 -16 -17 -17 -17 -17 -17 -18 -18 -18 -17
-6 -7 -7 -8 -8 -8 -8 -9 -9 -10 -10 -10 -10 -9 -10 -10 -10 -9 -9 -9 -10 -11 -11 -11 -12 -12 -13 -13 -14 -15 -16 -16 -17 -17 -17 -17 -18 -19 -19 -19 -19 -19 -19
-8 -8 -8 -8 -8 -8 -9 -9 -9 -10 -11 -11 -11 -11 -10 -9 -9 -10 -11 -11 -12 -13 -13 -13 -13 -14 -14 -15 -17 -18 -17 -18 -17 -18 -18 -19 -19 -19 -19 -19 -20 -20 -20
-9 -9 -9 -9 -9 -9 -9 -9 -10 -10 -11 -11 -12 -12 -11 -11 -12 -12 -13 -13 -13 -14 -14 -15 -17 -19 -19 -19 -20 -20 -20 -20 -20 -20 -19 -19 -20 -20 -20 -20 -20 -20 -20
-9 -9 -10 -10 -11 -11 -12 -12 -12 -13 -13 -13 -14 -14 -13 -13 -14 -14 -15 -16 -18 -19 -21 -20 -20 -21 -23 -24 -24 -23 -21 -20 -20 -21 -21 -21 -21 -21 -21 -20 -21 -21 -21
-11 -11 -12 -12 -12 -13 -13 -13 -13 -14 -14 -14 -15 -15 -15 -16 -17 -19 -20 -21 -23 -25 -26 -25 -25 -25 -26 -26 -26 -25 -23 -22 -23 -24 -25 -25 -24 -21 -21 -21 -21 -21 -21
-14 -13 -14 -14 -14 -14 -15 -15 -15 -15 -16 -16 -17 -18 -18 -18 -19 -22 -24 -24 -24 -24 -26 -26 -27 -26 -27 -26 -26 -26 -26 -26 -26 -26 -26 -25 -24 -22 -22 -22 -21 -21 -21
-19 -17 -17 -16 -16 -16 -16 -17 -17 -17 -17 -18 -18 -18 -19 -19 -19 -20 -23 -26 -27 -27 -27 -26 -26 -26 -26 -26 -26 -26 -26 -27 -26 -26 -25 -23 -23 -22 -22 -22 -22 -21 -21
-21 -19 -18 -18 -18 -18 -18 -18 -18 -19 -19 -19 -19 -19 -20 -21 -23 -22 -25 -26 -27 -26 -26 -26 -27 -26 -26 -26 -26 -26 -26 -26 -25 -24 -23 -22 -22 -22 -22 -21 -21 -21 -21

GFSGL_850_dewp_081.txt.gz
Dewpoint
6 7 7 9 9 9 9 9 9 8 9 9 7 4 2 -0 -0 2 2 2 3 1 2 3 4 4 4 5 5 5 5 6 7 7 6 5 5 6 6 5 6 6 6
6 8 8 8 7 10 10 9 9 9 8 8 8 9 6 2 -1 -1 1 2 3 3 1 3 5 5 4 5 5 5 5 4 5 6 7 6 6 5 7 6 6 7 6
8 7 8 9 8 6 7 9 9 9 9 9 8 9 9 8 7 2 1 2 2 3 4 2 2 4 4 5 5 5 5 5 6 6 7 7 6 6 8 7 8 7 7
9 8 8 8 8 8 7 7 7 8 9 9 9 9 8 8 8 7 6 4 4 5 3 4 3 3 3 3 4 5 5 6 7 7 7 7 7 8 8 7 7 7 6
9 9 8 7 8 8 8 8 8 9 8 8 8 8 9 8 8 8 8 7 6 6 6 5 5 4 4 4 5 5 6 7 7 6 7 8 7 7 5 6 7 6 6
9 9 9 8 8 8 8 9 9 9 10 10 9 9 9 9 8 8 8 8 7 7 6 6 6 6 6 6 6 6 7 8 7 7 7 7 7 7 7 6 5 5 3
9 10 9 9 9 8 8 9 9 9 9 9 10 10 10 9 9 8 8 9 8 8 8 8 7 7 7 7 8 8 8 8 8 8 8 7 7 8 7 6 5 4 3
5 5 9 10 10 9 9 9 9 9 9 9 9 9 10 9 10 9 9 9 9 9 8 8 7 7 7 8 8 8 8 8 8 8 8 7 7 6 5 4 3 2 1
6 6 5 7 9 10 10 9 9 9 9 9 10 10 9 9 9 10 10 9 8 8 9 8 8 8 8 8 8 8 8 8 7 7 6 4 4 3 2 2 0 -0 -2
6 7 7 7 7 7 10 10 9 10 10 10 10 10 9 9 9 9 10 10 10 9 9 9 9 9 9 9 9 8 8 7 5 3 1 1 0 -1 -1 -2 -2 -2 -3
5 6 6 7 7 7 8 10 10 10 10 10 10 10 10 10 9 9 9 9 9 9 9 9 8 8 8 8 8 8 6 3 0 -1 -1 -2 -3 -3 -3 -4 -6 -8 -9
2 2 4 6 7 8 8 9 10 10 10 10 10 10 10 9 9 9 9 9 9 9 9 9 7 7 6 3 1 0 -1 -2 -3 -3 -4 -5 -5 -6 -6 -7 -9 -13 -10
2 2 2 2 5 7 7 8 9 9 10 10 10 10 10 9 9 9 9 9 9 9 7 4 2 -2 -2 -3 -3 -4 -4 -5 -5 -5 -6 -6 -7 -8 -8 -8 -7 -7 -8
2 2 2 1 2 2 5 5 5 6 5 6 8 8 8 6 4 3 4 3 1 1 -3 -4 -3 -4 -4 -6 -6 -6 -6 -6 -6 -7 -8 -8 -8 -8 -8 -9 -9 -10 -11
1 1 0 -0 -1 -1 -0 1 1 -0 -0 -0 0 1 -1 -0 -2 -2 -2 -3 -3 -5 -5 -6 -6 -7 -6 -6 -7 -7 -8 -8 -8 -9 -9 -9 -9 -10 -10 -11 -12 -14 -15
-1 -1 -1 -2 -3 -4 -5 -4 -3 -3 -3 -4 -4 -4 -4 -5 -5 -4 -5 -6 -6 -6 -6 -6 -7 -8 -9 -9 -8 -9 -9 -9 -9 -9 -10 -11 -11 -12 -13 -15 -16 -17 -17
-3 -3 -4 -4 -5 -6 -6 -7 -7 -7 -7 -7 -7 -8 -9 -8 -8 -6 -6 -6 -6 -6 -6 -8 -9 -9 -10 -10 -10 -10 -11 -11 -12 -12 -13 -14 -16 -17 -18 -19 -20 -20 -20
-6 -6 -6 -7 -7 -7 -8 -8 -8 -9 -9 -9 -9 -8 -7 -8 -8 -8 -7 -7 -8 -8 -9 -9 -10 -10 -11 -11 -12 -12 -13 -14 -15 -17 -17 -19 -20 -21 -22 -23 -22 -20 -21
-8 -8 -8 -8 -8 -9 -9 -9 -9 -10 -10 -10 -9 -9 -9 -8 -8 -8 -8 -8 -9 -10 -10 -11 -11 -12 -12 -13 -14 -14 -15 -17 -19 -20 -21 -22 -22 -23 -23 -22 -21 -21 -21
-9 -9 -8 -8 -8 -9 -9 -10 -10 -10 -10 -10 -10 -10 -10 -9 -9 -10 -10 -11 -11 -12 -12 -13 -13 -13 -13 -14 -16 -19 -20 -21 -21 -22 -23 -24 -23 -22 -22 -22 -21 -21 -21
-9 -9 -10 -10 -10 -10 -10 -11 -11 -11 -11 -12 -12 -12 -11 -11 -12 -12 -13 -13 -13 -13 -14 -14 -15 -19 -21 -22 -23 -23 -25 -25 -25 -24 -24 -24 -24 -23 -23 -21 -21 -21 -21
-10 -10 -10 -11 -11 -11 -12 -12 -12 -13 -13 -13 -14 -14 -13 -13 -13 -14 -15 -16 -18 -19 -21 -22 -23 -25 -26 -26 -27 -27 -27 -27 -26 -25 -25 -25 -25 -24 -23 -21 -21 -21 -21
-12 -12 -12 -13 -13 -13 -13 -14 -14 -15 -15 -15 -16 -17 -18 -20 -22 -23 -25 -25 -25 -26 -27 -27 -27 -27 -27 -27 -27 -27 -26 -26 -26 -27 -27 -26 -26 -25 -24 -23 -22 -22 -22
-16 -15 -15 -14 -14 -15 -15 -15 -16 -17 -18 -19 -19 -20 -21 -21 -23 -24 -25 -26 -27 -28 -28 -28 -28 -27 -27 -27 -27 -27 -26 -26 -27 -27 -27 -26 -24 -23 -23 -22 -22 -22 -21
-20 -19 -19 -19 -18 -18 -18 -18 -18 -18 -19 -19 -19 -20 -21 -22 -25 -26 -26 -28 -28 -28 -28 -28 -28 -27 -27 -27 -26 -26 -27 -27 -27 -26 -25 -24 -23 -23 -23 -22 -22 -22 -21
-22 -21 -21 -20 -20 -20 -20 -20 -20 -20 -20 -20 -22 -22 -21 -23 -27 -26 -27 -28 -28 -28 -28 -27 -27 -27 -26 -26 -26 -27 -27 -26 -26 -25 -23 -22 -22 -22 -22 -22 -22 -22 -21

GFSGL_850_dewp_084.txt.gz
Dewpoint
5 2 3 9 10 10 9 9 8 8 8 8 7 3 2 4 5 5 6 6 4 3 2 2 3 5 5 4 5 5 4 5 6 5 5 5 5 4 5 6 6 6 6
8 6 3 2 8 9 9 9 9 8 8 8 8 7 3 2 3 5 5 5 4 3 3 2 2 2 4 5 5 5 5 4 5 5 5 5 5 4 5 6 5 6 7
8 8 6 5 5 6 7 9 9 9 9 8 8 8 8 7 4 4 5 5 4 3 4 3 3 2 3 3 3 4 5 5 5 5 5 5 5 5 5 6 6 6 7
9 9 8 7 6 7 8 8 8 9 9 9 8 8 8 8 8 8 8 6 4 3 1 0 2 2 2 2 2 2 3 5 5 6 5 5 6 6 7 6 7 6 6
10 9 9 8 8 8 8 8 8 7 7 8 8 9 9 9 8 8 9 9 8 8 7 6 3 1 2 2 3 3 4 4 4 5 5 7 8 8 7 5 6 7 7
10 10 9 9 9 9 8 8 8 8 8 8 8 8 7 8 8 8 8 8 8 8 8 8 7 6 5 5 5 6 5 5 5 6 7 7 8 7 7 7 7 7 7
8 10 10 10 10 10 9 9 9 9 9 9 8 8 8 8 8 8 8 9 9 9 8 8 8 7 7 7 7 7 7 7 7 7 8 7 8 8 8 8 7 7 7
6 6 7 8 10 10 10 10 10 9 9 9 9 9 9 9 9 8 9 9 9 9 9 8 8 8 8 8 8 8 7 7 7 8 8 8 8 8 7 7 7 6 5
3 4 5 6 6 7 8 8 10 10 10 10 9 9 9 9 9 9 10 10 9 9 9 8 8 8 8 7 7 7 8 8 8 8 8 8 8 8 7 6 5 4 2
2 2 2 3 4 5 6 7 7 10 10 10 10 10 10 10 10 10 10 10 10 10 10 9 9 9 8 8 8 8 8 8 8 8 7 7 6 6 5 3 2 2 1
2 2 2 2 2 4 5 6 7 8 9 10 9 10 10 10 10 10 10 10 10 10 10 10 9 9 9 9 8 8 8 7 5 2 0 -0 -0 -1 -1 -2 -2 -2 -2
2 2 2 2 2 2 2 5 6 7 8 9 9 9 9 9 10 10 10 10 9 9 9 9 9 8 8 8 8 7 7 4 1 -2 -3 -3 -4 -3 -3 -4 -5 -4 -5
2 2 1 1 1 1 1 1 4 5 6 7 7 6 6 5 5 7 9 9 9 9 8 5 2 2 1 1 -1 -2 -2 -4 -4 -4 -4 -5 -5 -6 -5 -6 -7 -8 -8
1 1 0 -0 -1 -1 -1 -1 -0 1 0 2 2 2 1 1 0 -2 2 3 4 2 -3 -1 -1 -3 -4 -6 -6 -5 -5 -5 -5 -5 -6 -7 -7 -8 -8 -8 -8 -8 -9
-1 -1 -1 -2 -3 -3 -3 -4 -3 -4 -2 -3 -3 -2 -2 -2 -3 -4 -4 -3 -4 -4 -4 -5 -5 -5 -5 -5 -5 -5 -6 -6 -7 -8 -8 -9 -9 -9 -9 -10 -10 -10 -11
-2 -3 -4 -4 -5 -6 -6 -7 -6 -6 -6 -6 -7 -6 -6 -6 -5 -5 -7 -6 -6 -6 -5 -5 -6 -7 -6 -7 -7 -7 -8 -8 -9 -9 -9 -10 -10 -11 -11 -13 -16 -19 -22
-5 -6 -6 -6 -6 -7 -8 -8 -8 -8 -8 -9 -9 -9 -8 -8 -7 -6 -6 -7 -6 -6 -6 -8 -9 -9 -9 -9 -9 -9 -10 -10 -10 -11 -11 -11 -13 -17 -21 -24 -25 -26 -25
-7 -7 -7 -8 -8 -8 -8 -8 -8 -8 -9 -9 -8 -8 -8 -8 -8 -8 -7 -7 -7 -8 -8 -9 -10 -10 -11 -12 -12 -12 -12 -12 -12 -13 -17 -21 -23 -24 -25 -25 -24 -23 -23
-8 -8 -8 -8 -9 -9 -9 -9 -9 -9 -9 -9 -9 -9 -9 -9 -8 -9 -8 -8 -10 -10 -11 -11 -12 -12 -12 -12 -13 -13 -15 -18 -21 -21 -22 -23 -24 -24 -24 -24 -24 -24 -24
-9 -8 -9 -9 -9 -9 -9 -10 -10 -10 -10 -10 -11 -10 -10 -9 -9 -10 -10 -11 -11 -12 -12 -13 -13 -13 -14 -15 -17 -19 -21 -21 -21 -22 -24 -24 -25 -25 -26 -25 -25 -24 -23
-9 -10 -10 -10 -10 -10 -11 -11 -11 -11 -11 -12 -12 -12 -11 -11 -12 -12 -12 -13 -13 -14 -14 -15 -18 -21 -21 -21 -22 -23 -24 -25 -25 -24 -25 -27 -27 -27 -26 -26 -25 -24 -24
-10 -10 -11 -11 -11 -12 -12 -12 -12 -13 -13 -13 -13 -14 -14 -14 -15 -16 -17 -18 -20 -22 -23 -24 -25 -26 -26 -26 -27 -27 -27 -27 -26 -27 -27 -27 -27 -27 -26 -26 -25 -24 -23
-12 -12 -12 -12 -13 -13 -13 -14 -14 -14 -15 -16 -17 -21 -25 -27 -27 -27 -28 -28 -27 -27 -27 -27 -28 -28 -28 -28 -27 -27 -27 -27 -27 -27 -27 -27 -27 -26 -25 -24 -23 -23 -23
-17 -15 -14 -14 -14 -15 -15 -17 -19 -20 -22 -23 -24 -24 -25 -26 -27 -27 -28 -28 -29 -29 -28 -28 -28 -28 -28 -28 -27 -27 -27 -27 -27 -27 -27 -27 -26 -24 -23 -23 -23 -22 -22
-21 -21 -20 -20 -20 -20 -20 -20 -21 -21 -22 -23 -25 -25 -26 -27 -28 -29 -29 -29 -29 -29 -29 -29 -29 -28 -28 -27 -27 -27 -27 -27 -27 -27 -26 -25 -23 -23 -23 -22 -22 -22 -22
-24 -23 -22 -21 -22 -22 -21 -21 -22 -22 -22 -22 -24 -25 -25 -26 -27 -27 -27 -28 -28 -28 -28 -28 -28 -27 -27 -26 -26 -27 -27 -27 -26 -25 -24 -23 -23 -22 -22 -22 -22 -22 -21

GFSGL_850_dewp_087.txt.gz
Dewpoint
6 4 5 6 9 9 8 8 8 8 8 8 8 7 6 4 4 7 7 7 6 7 6 6 5 4 4 4 4 6 7 6 5 5 5 5 4 4 4 4 5 5 5
8 8 6 6 8 9 9 8 8 8 8 7 7 8 8 6 4 4 5 6 6 6 6 6 5 5 5 3 2 3 6 5 4 4 4 4 4 4 4 5 5 5 5
9 9 8 7 7 7 9 9 9 8 8 8 8 8 7 8 8 7 6 4 5 6 6 6 6 5 4 4 2 2 3 4 4 5 5 5 5 5 5 5 5 4 4
9 9 9 9 8 8 6 7 9 9 8 8 8 8 8 8 8 8 6 3 3 4 4 4 4 5 4 3 3 2 3 4 4 6 6 5 5 4 6 6 5 4 3
10 10 9 9 9 9 9 8 8 8 8 8 8 8 8 8 8 8 8 8 8 7 5 5 5 5 4 3 4 3 3 4 5 6 6 6 7 7 5 4 6 5 5
10 9 9 9 9 9 10 10 9 9 9 9 9 8 8 8 8 8 8 8 8 8 8 8 8 8 8 7 7 7 5 5 5 5 6 7 7 7 7 6 7 7 7
9 9 9 9 9 10 10 10 10 10 10 10 9 9 9 9 8 8 8 8 8 8 8 8 8 8 8 8 8 8 8 7 6 6 6 6 7 7 7 7 7 7 7
4 5 6 7 8 9 9 9 9 9 9 9 10 10 10 10 9 9 9 9 9 9 9 9 9 8 8 8 9 8 8 8 8 8 7 7 7 7 7 7 7 7 7
1 1 2 2 3 4 6 7 8 8 9 9 9 9 10 10 10 10 10 10 9 9 10 9 9 9 9 8 8 7 8 8 8 8 8 8 7 8 8 8 7 7 6
2 2 2 2 1 1 1 3 4 5 7 7 8 9 9 9 9 9 9 9 10 10 10 10 10 9 9 9 9 9 8 9 9 8 8 8 7 7 7 7 6 4 4
2 1 1 1 1 1 1 1 2 3 4 6 7 8 9 9 9 9 9 9 9 9 10 9 8 9 9 9 9 9 8 8 8 7 6 3 1 1 1 0 -0 0 0
1 1 1 1 0 -0 -0 -0 0 1 4 4 6 6 6 6 6 7 8 9 9 9 7 8 8 8 8 8 7 8 7 6 5 2 -1 -3 -3 -3 -4 -4 -4 -4 -4
0 0 0 0 -0 -1 -1 -1 -1 -0 0 2 3 3 2 2 2 2 3 4 6 6 5 3 -2 2 4 5 3 -0 -3 -3 -3 -4 -4 -5 -5 -6 -6 -5 -5 -6 -6
-1 -1 -1 -1 -2 -3 -3 -3 -3 -2 -2 -2 -2 -1 -1 -2 -2 -2 -2 -1 -1 -1 -1 -3 -2 -3 -2 -4 -4 -4 -4 -4 -4 -4 -5 -6 -6 -6 -6 -7 -7 -7 -8
-3 -3 -4 -4 -4 -5 -5 -5 -5 -6 -5 -5 -6 -5 -6 -6 -6 -5 -5 -5 -4 -4 -4 -4 -5 -5 -6 -6 -7 -6 -6 -7 -7 -8 -8 -9 -8 -9 -8 -9 -9 -9 -10
-5 -5 -5 -6 -6 -7 -7 -7 -7 -7 -8 -8 -8 -8 -8 -8 -7 -7 -7 -6 -6 -6 -5 -6 -7 -7 -7 -8 -8 -9 -8 -9 -9 -9 -10 -10 -10 -10 -10 -10 -12 -19 -26
-6 -6 -7 -7 -7 -7 -8 -8 -8 -8 -8 -8 -8 -8 -8 -7 -7 -7 -7 -6 -7 -6 -7 -8 -9 -9 -9 -10 -10 -10 -11 -11 -11 -10 -10 -10 -11 -17 -29 -31 -30 -29 -29
-8 -8 -8 -8 -8 -8 -8 -9 -9 -9 -8 -8 -8 -8 -8 -8 -7 -7 -8 -7 -7 -8 -9 -9 -10 -10 -10 -11 -11 -11 -11 -11 -12 -15 -22 -25 -27 -28 -29 -29 -28 -28 -27
-8 -8 -8 -9 -9 -9 -9 -9 -9 -9 -9 -9 -9 -9 -9 -9 -9 -8 -8 -8 -9 -10 -10 -11 -11 -11 -11 -12 -12 -13 -18 -25 -26 -27 -27 -28 -29 -28 -28 -27 -27 -27 -27
-9 -9 -9 -9 -9 -9 -10 -10 -10 -10 -10 -11 -11 -10 -10 -9 -9 -10 -10 -11 -11 -12 -12 -12 -13 -13 -14 -18 -22 -23 -25 -26 -26 -27 -27 -27 -28 -27 -27 -26 -26 -26 -26
-10 -10 -10 -10 -10 -11 -11 -11 -11 -11 -11 -12 -12 -12 -12 -12 -12 -12 -13 -13 -14 -15 -19 -23 -25 -25 -26 -25 -25 -26 -26 -26 -27 -27 -27 -27 -27 -26 -26 -25 -25 -25 -25
-11 -11 -11 -11 -11 -12 -12 -13 -13 -13 -14 -14 -15 -15 -17 -19 -21 -24 -25 -26 -25 -26 -26 -26 -27 -27 -27 -27 -27 -27 -27 -27 -26 -27 -27 -27 -27 -26 -26 -25 -25 -24 -24
-13 -12 -12 -13 -13 -13 -14 -14 -15 -16 -19 -22 -24 -27 -28 -29 -28 -29 -29 -29 -28 -29 -29 -28 -28 -28 -28 -28 -27 -27 -27 -27 -27 -27 -27 -27 -27 -26 -25 -25 -24 -24 -24
-21 -19 -17 -16 -15 -16 -18 -21 -22 -23 -23 -24 -25 -26 -27 -28 -29 -29 -29 -29 -29 -29 -29 -29 -28 -28 -28 -28 -27 -27 -27 -27 -27 -27 -27 -27 -27 -26 -25 -24 -24 -24 -23
-24 -24 -23 -23 -22 -23 -23 -23 -24 -24 -24 -24 -25 -26 -26 -26 -27 -28 -29 -29 -29 -29 -28 -28 -28 -28 -28 -27 -27 -27 -27 -27 -27 -27 -27 -27 -26 -25 -24 -24 -23 -22 -22
-26 -26 -25 -25 -25 -25 -25 -25 -25 -26 -26 -27 -27 -28 -28 -28 -28 -28 -29 -29 -29 -28 -28 -28 -28 -27 -27 -26 -26 -27 -27 -27 -27 -27 -26 -25 -24 -23 -23 -23 -22 -22 -22

GFSGL_850_dewp_090.txt.gz
Dewpoint
8 5 4 6 7 9 8 9 9 8 8 8 9 8 8 8 8 9 9 7 7 7 7 7 6 6 5 4 5 5 6 4 4 4 6 5 5 5 5 5 4 5 5
8 7 6 5 5 8 8 8 8 8 8 8 8 8 8 8 8 7 6 7 7 7 7 7 7 6 6 6 6 6 5 3 4 4 4 5 6 5 4 4 4 4 4
9 8 8 7 6 7 8 8 8 8 8 8 8 8 8 8 8 8 7 5 5 6 7 7 6 6 6 6 6 6 5 4 4 4 4 3 3 3 4 4 3 4 4
10 9 9 9 8 8 8 8 8 8 8 8 8 8 7 7 8 8 8 8 7 6 5 5 6 6 6 6 6 6 6 6 5 5 5 4 5 4 5 5 5 3 3
10 10 10 10 10 10 9 9 8 8 8 8 8 8 8 8 8 7 7 7 7 8 8 7 6 5 4 5 5 5 5 5 6 6 6 6 5 6 6 3 5 3 4
9 9 9 9 9 9 9 10 10 10 9 9 9 9 9 8 8 8 8 8 8 8 8 8 8 8 8 7 8 7 7 7 7 6 7 7 6 6 6 6 5 6 6
8 9 9 9 9 9 9 9 9 9 9 9 9 9 9 10 10 9 9 9 9 9 8 8 8 8 8 8 8 8 8 8 8 7 7 7 7 6 7 6 6 6 7
5 6 7 8 8 8 8 8 9 9 9 9 8 9 9 9 9 9 9 9 9 9 9 9 9 9 9 9 9 8 8 8 8 8 8 8 7 6 6 6 6 6 7
1 1 1 1 2 2 4 6 7 8 8 8 8 9 9 9 9 9 9 9 9 9 9 10 10 10 9 9 9 9 9 9 8 7 8 8 8 8 7 6 6 6 6
1 1 0 0 1 1 1 1 1 2 3 5 6 7 7 8 8 9 9 9 9 9 9 9 8 8 8 8 8 9 8 9 9 8 8 7 7 6 6 6 6 5 4
1 1 1 0 -0 -1 -0 -0 -0 1 2 4 4 5 5 6 6 7 8 8 8 8 7 7 7 7 8 8 8 7 7 6 6 6 3 -0 0 0 0 0 2 1 1
-1 -0 -0 -0 -0 -1 -1 -1 -1 -0 0 1 1 2 3 3 3 3 4 5 5 5 5 4 4 4 5 6 5 5 5 4 4 1 -1 -2 -3 -4 -3 -3 -3 -3 -3
-1 -1 -1 -1 -2 -2 -2 -2 -2 -2 -2 -2 -1 -1 -1 -1 -1 -1 -1 -1 0 1 1 0 -1 -1 -0 -0 0 -0 -1 -2 -2 -3 -4 -5 -6 -6 -6 -6 -6 -6 -6
-2 -2 -2 -3 -4 -4 -4 -4 -4 -4 -4 -4 -4 -5 -5 -5 -5 -4 -4 -4 -3 -3 -3 -3 -3 -4 -4 -5 -5 -4 -5 -4 -4 -6 -7 -9 -9 -8 -8 -8 -7 -7 -7
-4 -4 -4 -5 -5 -6 -6 -6 -6 -6 -7 -7 -7 -7 -7 -7 -7 -6 -6 -6 -5 -5 -5 -5 -6 -6 -6 -7 -7 -8 -7 -8 -8 -9 -9 -9 -9 -9 -9 -9 -9 -9 -9
-5 -6 -6 -7 -7 -7 -7 -8 -8 -8 -8 -8 -7 -7 -7 -7 -7 -7 -7 -6 -6 -6 -6 -7 -8 -8 -8 -8 -9 -9 -9 -9 -9 -9 -9 -9 -9 -9 -10 -10 -15 -24 -30
-7 -7 -7 -8 -8 -8 -8 -8 -8 -8 -8 -8 -8 -8 -7 -7 -7 -7 -7 -7 -7 -8 -8 -9 -9 -9 -10 -9 -9 -9 -10 -10 -10 -10 -10 -11 -14 -22 -31 -32 -31 -30 -31
-8 -8 -8 -8 -8 -8 -9 -8 -8 -8 -9 -9 -9 -9 -8 -8 -8 -8 -8 -8 -8 -9 -9 -10 -10 -10 -11 -11 -11 -11 -11 -12 -16 -25 -29 -31 -31 -31 -31 -31 -31 -31 -30
-9 -9 -9 -9 -9 -9 -9 -9 -9 -9 -10 -10 -10 -10 -9 -9 -9 -9 -9 -9 -10 -11 -11 -11 -11 -12 -12 -13 -17 -22 -26 -29 -29 -30 -30 -30 -30 -30 -30 -29 -28 -28 -28
-9 -9 -9 -9 -10 -10 -10 -10 -10 -11 -11 -11 -11 -11 -11 -11 -11 -11 -11 -12 -12 -13 -15 -18 -21 -25 -26 -27 -27 -28 -29 -29 -29 -29 -29 -29 -28 -28 -28 -28 -28 -28 -27
-10 -10 -11 -11 -11 -11 -11 -12 -12 -12 -12 -13 -13 -13 -13 -14 -15 -16 -18 -22 -26 -27 -28 -28 -28 -29 -29 -29 -29 -28 -28 -28 -28 -28 -28 -28 -28 -28 -28 -27 -27 -26 -26
-11 -11 -11 -12 -12 -13 -13 -13 -14 -14 -16 -19 -22 -24 -27 -30 -31 -31 -30 -30 -29 -29 -29 -29 -29 -29 -29 -29 -28 -28 -28 -28 -28 -28 -28 -28 -27 -27 -27 -26 -25 -25 -25
-15 -14 -14 -14 -14 -14 -15 -17 -21 -24 -26 -27 -27 -28 -29 -30 -30 -30 -30 -30 -30 -29 -29 -29 -29 -29 -29 -29 -28 -28 -28 -28 -28 -28 -28 -27 -27 -27 -26 -25 -24 -24 -24
-22 -21 -20 -19 -20 -21 -22 -23 -24 -25 -25 -26 -27 -28 -29 -29 -29 -29 -30 -29 -29 -29 -29 -29 -29 -29 -29 -28 -28 -28 -27 -27 -27 -27 -27 -27 -27 -26 -25 -24 -24 -23 -23
-25 -24 -24 -24 -24 -24 -24 -24 -25 -26 -26 -27 -28 -29 -28 -29 -29 -29 -29 -29 -29 -29 -29 -29 -29 -28 -28 -28 -27 -27 -27 -28 -28 -28 -27 -27 -26 -24 -23 -23 -23 -23 -23
-27 -27 -27 -27 -27 -27 -27 -27 -27 -27 -27 -28 -29 -29 -29 -29 -29 -29 -29 -29 -29 -29 -28 -28 -27 -27 -27 -27 -27 -27 -27 -27 -27 -27 -26 -25 -24 -23 -23 -23 -23 -23 -23

GFSGL_850_dewp_093.txt.gz
Dewpoint
8 9 7 2 4 9 9 9 9 9 9 9 9 9 9 9 9 9 8 1 2 4 5 6 6 3 4 7 6 7 5 6 6 5 5 4 5 4 3 5 5 6 5
8 8 6 2 4 9 8 8 8 9 9 8 9 9 9 9 8 8 7 4 6 5 5 4 5 5 5 7 7 7 7 5 5 5 4 4 4 3 3 4 4 5 5
8 8 7 5 4 7 7 8 8 8 8 8 8 8 8 9 9 8 8 8 8 8 8 8 7 7 7 7 7 7 6 5 6 5 6 6 6 5 4 3 4 3 3
10 10 9 9 7 6 7 8 8 8 8 8 8 8 8 8 8 8 8 8 8 7 7 7 6 6 6 7 7 7 7 7 7 7 7 7 7 6 7 7 7 6 5
9 9 10 10 9 9 8 8 8 8 8 8 8 8 8 8 7 7 7 7 7 8 8 7 7 7 7 7 7 7 7 8 8 8 8 7 7 7 7 7 7 6 5
9 9 9 9 9 9 9 9 9 9 9 9 9 8 8 8 8 8 8 8 8 7 7 7 7 7 7 7 8 8 8 8 7 7 7 7 7 6 7 7 7 7 7
7 7 8 9 9 9 9 9 9 9 9 9 9 9 9 9 9 9 9 9 9 9 9 9 8 8 8 8 8 8 8 8 8 8 8 7 7 7 7 7 7 7 7
6 4 7 8 8 8 8 8 8 8 8 8 8 8 8 9 8 8 9 9 9 9 9 9 9 9 9 9 9 9 9 9 9 9 8 8 7 7 7 7 7 6 7
2 1 1 1 2 4 6 7 7 7 7 7 7 8 8 8 8 8 8 9 9 9 8 8 8 8 8 8 8 8 8 8 8 8 7 7 6 6 7 7 6 6 6
0 0 -1 -1 -0 0 1 1 2 3 4 5 5 5 6 6 6 7 7 7 7 8 7 7 7 7 7 7 7 7 7 6 6 6 6 6 5 5 5 4 4 4 4
-0 -0 -0 -0 -1 -1 -1 -1 -0 0 1 2 3 3 3 3 4 4 4 5 5 5 5 6 5 5 6 6 6 7 6 6 5 4 4 3 2 2 1 1 1 1 1
-1 -1 -2 -2 -2 -2 -2 -2 -1 -1 -0 -0 -1 -0 -0 -0 -1 -0 -0 0 1 2 2 2 1 1 1 2 2 2 3 3 2 1 -1 -1 -2 -3 -4 -3 -3 -3 -3
-2 -2 -3 -3 -3 -3 -3 -3 -3 -3 -3 -3 -3 -4 -4 -4 -4 -4 -4 -3 -3 -2 -2 -2 -3 -3 -2 -2 -3 -3 -2 -2 -2 -3 -4 -5 -6 -6 -7 -7 -7 -7 -6
-4 -4 -5 -5 -5 -5 -5 -5 -5 -5 -5 -5 -6 -6 -6 -6 -6 -6 -5 -5 -5 -5 -5 -5 -5 -5 -5 -5 -5 -5 -5 -5 -6 -6 -7 -8 -8 -7 -7 -7 -7 -7 -7
-5 -5 -6 -7 -7 -7 -7 -7 -7 -7 -7 -7 -7 -7 -7 -7 -7 -6 -6 -6 -6 -6 -6 -7 -7 -7 -7 -7 -8 -8 -8 -8 -8 -8 -8 -8 -8 -8 -8 -9 -9 -9 -10
-6 -6 -7 -7 -7 -7 -7 -7 -7 -7 -7 -7 -7 -7 -7 -7 -7 -7 -7 -7 -7 -7 -8 -8 -8 -9 -9 -9 -9 -9 -9 -9 -9 -9 -9 -9 -9 -10 -12 -17 -26 -30 -32
-7 -7 -7 -8 -8 -8 -8 -8 -8 -8 -8 -8 -8 -8 -8 -8 -7 -7 -7 -8 -8 -8 -9 -9 -9 -10 -10 -10 -10 -11 -11 -11 -13 -15 -20 -27 -31 -32 -32 -32 -32 -31 -30
-8 -8 -8 -8 -8 -8 -9 -9 -9 -9 -9 -9 -9 -9 -9 -9 -8 -9 -9 -8 -9 -9 -10 -10 -10 -11 -11 -12 -13 -16 -19 -24 -29 -31 -32 -32 -32 -31 -30 -30 -29 -27 -26
-9 -9 -9 -9 -9 -9 -9 -9 -9 -10 -10 -10 -10 -10 -10 -10 -10 -10 -10 -10 -10 -11 -11 -12 -15 -20 -25 -28 -28 -29 -29 -30 -30 -30 -31 -30 -30 -30 -29 -29 -29 -29 -28
-10 -10 -10 -10 -10 -10 -10 -10 -10 -11 -11 -11 -11 -11 -11 -11 -11 -12 -13 -15 -18 -23 -28 -29 -29 -28 -28 -28 -28 -28 -29 -29 -29 -29 -29 -29 -29 -29 -29 -28 -28 -27 -27
-11 -11 -11 -11 -11 -11 -12 -12 -12 -13 -13 -14 -14 -14 -16 -18 -21 -26 -29 -29 -30 -30 -30 -29 -29 -29 -29 -29 -29 -29 -29 -29 -29 -29 -29 -29 -28 -28 -28 -28 -27 -26 -26
-13 -12 -12 -12 -13 -13 -13 -14 -15 -17 -22 -25 -28 -28 -28 -30 -30 -30 -30 -30 -30 -30 -29 -29 -30 -30 -29 -29 -29 -29 -29 -29 -29 -28 -28 -28 -28 -28 -27 -26 -26 -25 -25
-19 -17 -16 -15 -15 -16 -18 -21 -24 -26 -27 -27 -28 -29 -29 -30 -30 -30 -30 -30 -30 -30 -30 -30 -30 -29 -29 -29 -29 -28 -28 -28 -28 -28 -28 -28 -28 -27 -26 -25 -25 -24 -24
-23 -21 -20 -21 -21 -22 -23 -24 -25 -25 -26 -27 -28 -28 -29 -29 -29 -30 -30 -30 -29 -29 -29 -29 -29 -29 -29 -28 -28 -28 -28 -28 -28 -28 -27 -27 -27 -26 -25 -24 -24 -23 -23
-24 -24 -23 -23 -24 -24 -25 -25 -26 -27 -27 -28 -28 -29 -29 -29 -28 -29 -29 -29 -29 -29 -28 -28 -28 -28 -28 -27 -27 -27 -27 -27 -27 -28 -27 -26 -26 -25 -24 -23 -23 -23 -23
-27 -27 -27 -27 -27 -27 -27 -27 -27 -28 -28 -28 -28 -28 -28 -28 -28 -28 -29 -29 -28 -28 -28 -28 -27 -27 -27 -27 -27 -27 -27 -27 -27 -27 -27 -26 -25 -24 -23 -23 -23 -23 -23

GFSGL_850_dewp_096.txt.gz
Dewpoint
10 10 8 7 8 10 9 9 9 9 9 9 9 9 10 10 9 9 9 9 8 6 1 5 3 6 3 6 5 3 2 4 6 6 6 5 5 6 7 5 3 3 3
11 10 9 7 9 9 9 9 9 9 10 9 9 9 9 9 9 9 9 9 8 6 6 1 1 -1 5 4 3 3 3 4 5 6 6 6 5 6 4 4 4 5 5
10 10 10 10 9 9 10 9 8 9 9 9 9 8 9 9 9 9 9 9 8 7 6 2 3 2 3 5 5 6 4 4 5 7 7 7 7 6 7 7 7 8 7
10 10 9 9 10 10 9 8 8 8 8 8 8 9 9 9 9 9 9 9 8 7 4 4 6 6 5 7 6 6 8 8 8 8 8 8 8 7 7 7 8 7 7
9 9 9 9 9 9 9 9 8 8 8 8 7 8 8 8 8 9 9 9 8 8 8 8 8 8 7 7 8 8 8 8 8 8 8 8 8 8 7 7 8 7 7
9 9 9 9 9 9 9 9 9 9 8 8 8 8 8 8 8 7 8 7 7 7 7 7 7 7 7 7 7 7 7 8 8 8 8 8 8 8 8 8 8 8 8
7 7 8 8 8 9 9 9 9 9 9 9 8 8 8 9 9 8 8 8 8 8 8 8 8 8 8 8 8 9 9 8 8 8 8 8 8 8 8 8 8 8 8
3 5 5 7 6 7 8 8 8 8 8 8 8 8 8 8 8 9 9 9 9 9 8 8 8 8 8 8 8 8 8 8 8 8 7 7 7 7 7 7 7 7 7
2 1 3 4 5 3 6 6 6 6 7 7 7 7 7 7 8 8 8 8 8 8 8 8 8 8 8 8 8 7 7 7 7 7 7 7 7 7 7 6 6 5 6
1 1 1 0 1 2 2 4 4 5 5 5 5 5 5 5 5 6 6 6 7 7 7 7 7 7 7 7 7 7 7 6 6 5 5 5 5 5 4 4 3 3 3
-0 -0 -0 0 0 -1 -1 0 1 1 1 2 2 2 2 2 1 2 1 2 3 4 4 4 4 4 4 4 4 4 4 4 4 3 2 1 0 -0 -0 -0 -1 -0 0
-1 -1 -1 -2 -2 -2 -2 -2 -1 -1 -1 -1 -1 -2 -3 -3 -3 -3 -2 -2 -1 0 1 0 -0 -2 -2 -1 -1 -0 -1 -0 -0 -1 -2 -2 -3 -3 -4 -4 -4 -5 -4
-3 -3 -3 -4 -3 -4 -3 -3 -3 -4 -4 -4 -4 -5 -5 -5 -5 -5 -5 -4 -4 -4 -4 -4 -4 -4 -4 -4 -4 -3 -3 -3 -4 -4 -4 -5 -6 -6 -7 -7 -7 -7 -7
-4 -5 -6 -6 -6 -6 -6 -6 -6 -6 -6 -6 -6 -6 -6 -6 -6 -6 -6 -6 -6 -6 -6 -6 -6 -6 -6 -6 -6 -6 -6 -7 -7 -7 -8 -8 -7 -7 -8 -8 -8 -8 -8
-6 -6 -7 -7 -7 -7 -7 -7 -7 -7 -7 -7 -7 -7 -7 -7 -7 -7 -7 -7 -7 -7 -7 -7 -8 -8 -8 -8 -8 -8 -8 -8 -8 -9 -9 -9 -9 -9 -9 -10 -11 -12 -13
-8 -8 -8 -9 -9 -8 -8 -8 -8 -7 -7 -7 -7 -7 -7 -7 -7 -7 -7 -8 -8 -8 -8 -8 -9 -9 -9 -9 -9 -9 -9 -9 -10 -10 -10 -11 -13 -15 -13 -15 -15 -15 -16
-8 -8 -8 -9 -9 -9 -9 -10 -9 -9 -9 -8 -8 -8 -8 -8 -8 -8 -8 -9 -9 -9 -9 -10 -10 -10 -11 -11 -11 -12 -13 -15 -19 -21 -23 -22 -20 -20 -15 -14 -14 -15 -16
-8 -8 -8 -9 -9 -9 -9 -9 -9 -10 -10 -9 -9 -9 -9 -9 -9 -9 -9 -10 -10 -10 -11 -12 -12 -13 -13 -14 -17 -18 -20 -21 -25 -22 -23 -23 -16 -15 -15 -16 -15 -15 -16
-9 -9 -9 -9 -9 -10 -10 -10 -10 -10 -11 -11 -11 -11 -11 -10 -10 -10 -11 -11 -12 -13 -15 -17 -17 -16 -16 -17 -20 -24 -29 -31 -30 -25 -22 -22 -21 -19 -20 -16 -17 -27 -17
-10 -10 -10 -10 -10 -10 -11 -11 -11 -11 -12 -12 -12 -12 -12 -12 -12 -14 -17 -22 -27 -26 -25 -24 -24 -27 -26 -26 -29 -26 -22 -25 -24 -22 -26 -24 -22 -19 -17 -17 -17 -16 -17
-11 -11 -11 -11 -11 -12 -12 -13 -13 -13 -14 -16 -18 -19 -18 -25 -30 -31 -32 -32 -31 -29 -28 -28 -30 -30 -28 -29 -27 -28 -29 -28 -29 -26 -24 -21 -27 -18 -19 -18 -17 -17 -21
-14 -13 -13 -13 -14 -14 -14 -15 -17 -20 -24 -26 -28 -30 -31 -32 -32 -31 -32 -32 -32 -31 -31 -30 -30 -30 -30 -30 -30 -29 -29 -29 -29 -28 -26 -26 -20 -18 -18 -18 -18 -18 -18
-16 -15 -15 -16 -17 -17 -19 -21 -22 -23 -26 -27 -27 -29 -30 -31 -31 -30 -31 -31 -31 -31 -31 -31 -31 -30 -30 -30 -29 -29 -29 -29 -29 -29 -28 -26 -20 -19 -19 -19 -19 -19 -19
-19 -17 -19 -21 -22 -18 -18 -19 -24 -26 -26 -25 -27 -29 -30 -30 -30 -30 -31 -31 -31 -30 -30 -30 -29 -29 -29 -29 -29 -28 -28 -28 -28 -28 -28 -27 -23 -20 -20 -20 -20 -21 -20
-19 -20 -21 -19 -19 -19 -19 -22 -23 -24 -25 -25 -25 -25 -27 -28 -29 -29 -29 -29 -29 -29 -29 -29 -28 -28 -28 -28 -28 -27 -27 -27 -27 -27 -27 -27 -26 -25 -24 -21 -23 -20 -20
-25 -25 -22 -21 -23 -22 -21 -21 -22 -23 -23 -24 -25 -26 -28 -28 -29 -29 -29 -29 -29 -29 -28 -28 -28 -28 -27 -27 -27 -27 -27 -27 -27 -27 -27 -27 -26 -23 -21 -21 -22 -21 -21

GFSGL_850_dewp_099.txt.gz
Dewpoint
10 10 12 11 10 9 9 10 10 9 9 9 10 10 10 10 9 8 8 9 9 7 7 7 6 7 7 5 5 6 6 6 6 5 5 5 6 7 7 7 7 6 5
10 10 11 11 10 9 10 10 9 9 9 9 10 9 9 10 10 9 9 9 9 8 8 8 7 5 4 6 8 7 6 5 5 5 5 1 2 2 4 4 4 5 6
10 10 10 10 10 9 9 9 9 9 9 9 9 8 9 10 9 9 9 9 9 9 9 9 6 6 2 2 5 5 5 5 4 4 3 3 3 2 4 6 7 7 6
10 10 10 9 9 9 9 9 9 9 9 9 9 9 8 9 9 9 9 9 9 9 8 8 7 8 5 5 4 2 5 5 4 5 5 6 7 7 8 8 8 8 8
10 9 9 9 9 9 9 9 9 9 10 10 9 9 9 9 9 8 9 9 9 9 8 8 8 7 4 2 3 5 5 6 8 8 8 9 8 8 8 8 9 8 8
9 9 9 9 8 9 9 9 8 8 8 8 8 8 9 9 9 9 9 9 9 9 9 9 8 8 8 8 8 8 7 8 8 8 8 8 8 9 9 9 9 9 9
6 7 8 8 9 9 9 9 9 8 8 8 8 8 8 8 7 8 8 8 8 9 8 8 9 9 9 9 9 9 8 8 8 8 8 8 8 8 8 8 8 8 8
2 3 4 4 6 8 9 9 9 9 9 8 8 8 8 8 9 9 8 8 8 8 8 9 9 9 9 8 8 8 8 8 8 8 8 7 7 7 7 7 7 7 7
1 0 1 1 2 2 3 4 5 6 5 6 7 7 6 7 8 8 8 8 8 8 8 8 8 8 8 8 8 7 7 7 7 7 6 6 6 6 6 6 5 5 4
0 -0 -0 -0 -0 -0 0 1 2 3 1 2 3 3 3 4 4 5 6 6 6 6 5 5 6 5 5 6 7 6 6 5 5 5 4 4 3 3 2 2 2 2 1
-0 -0 -0 0 -1 -1 0 1 1 2 2 0 0 2 2 1 1 1 3 3 4 4 3 3 3 3 3 3 3 3 3 3 2 2 1 0 -0 -1 -1 -2 -2 -3 -2
-1 -2 -2 -1 -1 -1 -0 -0 -0 -0 -1 -1 -1 -2 -3 -4 -4 -3 -2 -1 1 1 1 0 -1 -2 -2 -2 -1 -1 -1 -1 -1 -2 -2 -3 -3 -4 -5 -6 -6 -6 -6
-4 -3 -3 -3 -2 -2 -3 -3 -2 -2 -3 -4 -4 -5 -5 -5 -5 -5 -5 -4 -4 -4 -4 -5 -5 -5 -4 -4 -4 -3 -3 -3 -4 -4 -5 -6 -7 -7 -7 -7 -7 -7 -7
-6 -6 -5 -4 -5 -5 -5 -4 -4 -5 -5 -5 -6 -6 -6 -6 -6 -6 -6 -6 -6 -6 -6 -6 -6 -6 -6 -6 -6 -7 -7 -7 -7 -7 -8 -8 -8 -8 -8 -8 -8 -8 -9
-7 -8 -8 -8 -7 -7 -7 -8 -7 -7 -7 -7 -7 -7 -7 -7 -7 -7 -7 -7 -7 -7 -7 -7 -7 -8 -8 -8 -8 -9 -8 -8 -8 -8 -9 -9 -9 -9 -10 -12 -13 -12 -13
-8 -8 -8 -8 -8 -9 -8 -8 -8 -8 -8 -8 -7 -7 -7 -7 -8 -8 -8 -8 -8 -8 -8 -8 -9 -9 -9 -10 -10 -10 -10 -11 -11 -11 -11 -11 -11 -13 -11 -12 -12 -13 -15
-8 -8 -9 -9 -9 -9 -9 -9 -9 -9 -9 -8 -8 -8 -8 -8 -8 -9 -9 -9 -9 -9 -9 -10 -10 -11 -11 -11 -11 -12 -12 -15 -14 -14 -13 -13 -12 -12 -13 -13 -12 -13 -14
-8 -8 -9 -9 -9 -9 -9 -9 -10 -10 -10 -10 -9 -9 -9 -9 -9 -9 -9 -9 -10 -10 -11 -12 -12 -12 -12 -13 -13 -13 -14 -14 -13 -13 -14 -14 -13 -13 -13 -14 -19 -16 -14
-9 -9 -9 -9 -9 -9 -10 -10 -11 -11 -11 -12 -12 -11 -11 -11 -11 -11 -11 -12 -12 -13 -13 -13 -14 -14 -14 -14 -14 -14 -15 -15 -15 -15 -15 -15 -15 -14 -14 -14 -14 -15 -15
-10 -10 -11 -11 -11 -11 -11 -11 -11 -11 -12 -13 -13 -13 -13 -13 -13 -15 -17 -15 -14 -14 -14 -15 -15 -15 -16 -15 -16 -16 -15 -16 -16 -15 -16 -16 -16 -15 -15 -15 -15 -15 -15
-11 -12 -12 -12 -12 -12 -12 -12 -12 -13 -13 -14 -24 -26 -24 -14 -15 -15 -16 -16 -16 -16 -16 -16 -17 -17 -17 -17 -17 -17 -18 -17 -18 -17 -17 -17 -17 -16 -16 -16 -16 -16 -16
-12 -12 -13 -13 -13 -13 -13 -13 -13 -14 -14 -15 -15 -21 -20 -16 -16 -17 -17 -18 -19 -18 -18 -18 -18 -22 -28 -24 -23 -20 -19 -24 -26 -28 -20 -18 -17 -17 -17 -16 -17 -17 -16
-13 -13 -13 -13 -14 -14 -14 -14 -14 -15 -15 -16 -16 -17 -17 -17 -18 -18 -18 -19 -20 -24 -29 -27 -29 -28 -29 -27 -26 -27 -29 -30 -29 -29 -29 -27 -18 -18 -18 -17 -17 -18 -18
-14 -14 -14 -15 -15 -15 -15 -15 -16 -18 -16 -16 -17 -17 -18 -18 -18 -19 -23 -27 -22 -26 -30 -29 -29 -30 -30 -30 -29 -29 -29 -29 -29 -29 -29 -28 -22 -19 -19 -19 -18 -18 -18
-15 -15 -15 -16 -16 -16 -16 -16 -17 -17 -17 -17 -18 -18 -18 -19 -19 -19 -20 -26 -29 -27 -28 -28 -29 -29 -29 -29 -29 -29 -28 -28 -28 -28 -28 -28 -22 -24 -20 -21 -20 -20 -19
-17 -17 -16 -16 -17 -17 -17 -17 -17 -18 -18 -18 -19 -19 -19 -20 -20 -21 -23 -26 -29 -29 -28 -28 -29 -29 -29 -26 -29 -28 -27 -27 -27 -27 -27 -27 -25 -21 -21 -21 -20 -20 -20

GFSGL_850_dewp_102.txt.gz
Dewpoint
11 9 11 12 11 10 10 9 9 9 9 9 10 10 10 8 9 8 8 8 9 9 9 8 7 6 6 5 5 7 7 7 6 6 5 5 6 6 6 6 7 7 6
10 10 11 12 11 10 10 10 9 9 9 9 8 10 10 10 10 9 8 8 8 9 8 8 8 7 8 7 6 4 3 5 5 6 5 4 4 4 4 4 4 3 3
10 10 11 11 10 10 10 9 9 9 9 9 8 9 10 10 9 9 9 8 8 9 9 9 8 7 8 7 6 7 6 6 7 7 6 4 3 3 2 3 4 4 3
10 10 10 10 10 9 9 9 9 9 9 8 9 9 9 9 9 9 10 9 9 9 9 9 9 9 8 7 7 5 6 7 6 7 6 4 4 6 7 7 7 7 7
9 10 10 10 10 9 9 9 8 8 9 9 9 9 9 9 9 9 9 9 9 9 9 9 8 8 8 8 7 6 4 4 4 4 4 4 6 8 8 8 9 9 9
6 8 9 9 9 8 8 10 10 10 10 10 9 10 9 9 9 9 9 9 9 9 9 8 8 8 8 8 8 8 6 4 5 8 8 8 9 8 8 8 9 9 8
3 4 6 7 8 9 9 9 9 9 9 10 10 10 10 9 9 9 9 9 9 9 9 9 9 9 9 8 8 8 8 8 8 8 8 8 8 8 8 8 8 8 7
1 1 2 3 5 6 8 8 8 8 8 8 8 8 8 8 8 8 8 9 9 8 9 9 9 8 8 7 8 9 9 8 8 8 8 8 8 8 7 7 7 7 6
0 0 1 1 2 2 2 3 3 5 7 8 7 7 7 8 7 8 8 8 8 8 8 8 8 8 8 8 8 7 7 7 7 7 7 6 6 5 5 5 4 4 4
-1 -1 -0 0 1 1 0 0 0 1 0 1 2 3 3 4 5 5 6 6 5 4 4 5 5 6 6 6 6 6 5 4 4 4 3 3 2 2 1 2 1 1 1
-3 -1 -1 -0 0 0 0 -1 -1 0 0 -0 -0 -0 1 0 2 2 3 3 3 3 2 1 1 2 3 3 2 2 2 1 1 1 0 -0 -1 -1 -2 -3 -3 -3 -4
-3 -2 -3 -2 -1 -2 -1 -2 -3 -2 -1 -1 -0 -1 -1 -2 -2 -2 -0 0 1 -0 1 -1 -3 -3 -3 -2 -2 -2 -2 -2 -2 -2 -2 -2 -3 -4 -6 -6 -7 -7 -7
-5 -4 -3 -3 -3 -3 -3 -4 -4 -3 -2 -3 -3 -4 -4 -4 -4 -4 -4 -3 -3 -3 -4 -5 -5 -5 -5 -4 -4 -3 -3 -4 -4 -5 -6 -7 -7 -7 -8 -8 -8 -8 -8
-6 -6 -5 -4 -4 -4 -5 -5 -4 -5 -5 -6 -6 -6 -6 -6 -6 -6 -5 -6 -6 -6 -6 -7 -7 -7 -7 -7 -7 -7 -7 -7 -7 -7 -8 -8 -8 -9 -10 -10 -10 -11 -13
-7 -7 -7 -8 -7 -6 -6 -6 -6 -7 -6 -6 -6 -6 -6 -6 -7 -6 -6 -7 -7 -7 -7 -7 -8 -8 -8 -8 -9 -9 -9 -9 -9 -9 -9 -10 -11 -11 -14 -16 -15 -14 -17
-8 -8 -8 -8 -8 -8 -8 -8 -8 -8 -7 -7 -7 -7 -8 -8 -8 -8 -8 -8 -8 -8 -8 -9 -9 -9 -9 -10 -10 -11 -11 -12 -12 -12 -12 -13 -14 -16 -13 -14 -14 -16 -16
-8 -9 -9 -8 -8 -8 -9 -9 -9 -9 -8 -8 -8 -8 -9 -9 -9 -9 -9 -9 -9 -9 -10 -10 -10 -11 -11 -12 -13 -14 -15 -17 -17 -18 -19 -17 -15 -15 -18 -20 -18 -16 -16
-9 -9 -9 -9 -9 -10 -10 -10 -10 -10 -10 -10 -10 -10 -10 -9 -9 -9 -10 -10 -11 -11 -12 -12 -13 -14 -14 -16 -17 -19 -22 -21 -20 -20 -22 -20 -17 -17 -16 -15 -18 -26 -17
-9 -10 -10 -10 -10 -10 -10 -10 -10 -11 -11 -11 -11 -11 -11 -11 -11 -11 -11 -12 -14 -15 -16 -16 -16 -15 -15 -17 -15 -15 -18 -18 -16 -18 -19 -19 -17 -15 -16 -17 -16 -15 -16
-11 -11 -11 -11 -11 -11 -11 -11 -11 -12 -12 -13 -15 -13 -13 -14 -18 -20 -19 -18 -17 -16 -15 -17 -17 -18 -16 -15 -17 -16 -16 -19 -18 -18 -18 -19 -17 -16 -15 -16 -16 -16 -17
-12 -12 -12 -12 -12 -12 -12 -12 -12 -13 -14 -17 -27 -21 -15 -16 -17 -18 -20 -19 -18 -18 -17 -19 -21 -22 -22 -19 -19 -20 -22 -24 -23 -21 -21 -19 -16 -16 -16 -16 -17 -16 -16
-12 -12 -13 -13 -14 -13 -13 -13 -13 -14 -14 -15 -15 -18 -16 -16 -17 -18 -21 -21 -21 -21 -21 -21 -23 -26 -27 -27 -26 -25 -27 -28 -30 -29 -26 -22 -18 -17 -17 -17 -17 -18 -17
-13 -13 -13 -13 -13 -13 -14 -14 -14 -14 -15 -15 -16 -16 -17 -18 -18 -19 -21 -20 -23 -26 -28 -29 -29 -29 -29 -28 -29 -29 -29 -30 -30 -30 -29 -28 -22 -21 -20 -18 -18 -18 -19
-14 -14 -14 -15 -15 -14 -15 -15 -15 -17 -16 -16 -16 -17 -17 -18 -18 -19 -23 -25 -23 -26 -28 -29 -30 -29 -29 -29 -29 -29 -29 -29 -29 -29 -29 -28 -27 -26 -24 -22 -20 -19 -19
-15 -15 -15 -15 -15 -15 -16 -16 -16 -16 -16 -17 -17 -17 -18 -18 -19 -19 -21 -25 -27 -26 -26 -29 -27 -28 -28 -29 -29 -28 -28 -28 -28 -28 -28 -28 -27 -25 -21 -20 -20 -20 -20
-16 -16 -16 -16 -16 -16 -16 -16 -17 -17 -17 -18 -18 -18 -19 -19 -19 -20 -20 -24 -25 -26 -24 -24 -27 -27 -27 -28 -28 -28 -28 -27 -27 -28 -28 -28 -28 -27 -26 -24 -22 -21 -21

GFSGL_850_dewp_105.txt.gz
Dewpoint
11 11 11 10 10 12 11 11 10 10 8 9 9 10 9 8 8 9 10 10 10 10 9 9 8 8 8 8 7 5 3 3 6 4 7 6 7 7 6 6 6 6 6
11 12 11 10 11 12 12 10 10 9 8 10 9 9 9 8 8 9 9 9 9 9 8 8 8 8 9 7 7 5 5 4 5 6 6 6 6 6 6 6 6 6 6
11 11 10 10 12 11 11 10 10 9 9 9 10 10 10 10 8 8 9 8 8 8 8 8 8 8 8 8 7 7 6 5 6 6 4 5 3 4 5 4 1 2 4
10 11 11 11 11 11 11 10 9 9 9 9 9 10 10 9 10 9 9 9 8 8 8 8 9 9 8 8 7 8 7 7 7 7 6 6 6 5 5 4 4 7 7
7 9 10 10 10 10 10 9 9 9 9 9 8 8 9 9 9 9 9 9 9 9 9 9 9 9 9 9 8 8 8 7 7 7 7 6 5 6 5 7 8 8 9
3 5 6 9 10 10 10 9 10 9 9 9 9 9 8 9 9 9 9 9 9 9 9 9 9 9 8 8 8 8 8 8 7 5 5 5 4 7 8 9 9 8 8
2 2 2 5 8 9 10 9 9 9 9 9 9 9 9 9 9 9 9 9 9 9 8 8 8 8 8 8 8 8 8 8 8 8 6 6 8 8 8 8 8 8 8
1 0 1 1 3 6 7 8 8 8 8 9 8 8 7 8 9 9 9 9 9 9 8 8 8 9 9 8 8 8 8 8 8 8 8 7 7 7 7 7 7 7 6
-1 0 -0 -1 0 2 3 3 4 5 4 6 5 5 6 7 8 8 8 8 8 8 8 8 8 8 8 8 8 8 8 7 7 7 6 6 5 6 6 6 5 4 4
-2 -2 -0 -1 -1 -0 0 -0 1 1 1 1 1 2 1 3 4 5 5 6 7 7 6 7 7 7 7 7 5 6 6 5 4 4 3 2 2 1 2 2 1 1 1
-3 -2 -2 -2 -1 -1 -0 -1 0 1 1 1 1 1 1 0 1 2 2 2 3 3 3 2 3 3 3 3 2 2 1 1 1 1 1 1 0 -0 -2 -2 -3 -3 -4
-4 -2 -2 -2 -2 -2 -1 -1 -1 -0 0 -0 -0 -0 -0 -0 -1 0 1 0 -0 1 1 -0 0 -1 1 1 1 -0 -0 -0 -1 -1 -1 -2 -2 -4 -5 -6 -7 -7 -7
-5 -5 -4 -4 -3 -3 -3 -3 -2 -2 -2 -2 -3 -3 -3 -3 -3 -2 -2 -1 -1 -1 -4 -2 -3 -3 -3 -3 -3 -3 -3 -3 -3 -4 -5 -6 -7 -8 -8 -8 -8 -8 -8
-7 -7 -6 -5 -5 -5 -4 -4 -4 -4 -4 -4 -4 -5 -5 -6 -6 -5 -4 -4 -4 -4 -5 -6 -6 -6 -6 -6 -6 -6 -7 -7 -8 -8 -8 -8 -9 -10 -9 -10 -10 -11 -13
-7 -8 -8 -8 -8 -7 -6 -7 -6 -6 -6 -5 -6 -6 -6 -7 -8 -7 -6 -6 -6 -6 -6 -7 -7 -7 -7 -7 -8 -8 -8 -8 -8 -9 -10 -11 -12 -13 -15 -17 -17 -19 -21
-8 -8 -8 -8 -8 -9 -9 -8 -8 -7 -7 -7 -7 -7 -8 -8 -8 -8 -8 -8 -8 -8 -7 -8 -8 -8 -8 -9 -10 -10 -11 -11 -11 -12 -12 -14 -16 -17 -18 -18 -18 -20 -20
-9 -9 -9 -8 -9 -9 -9 -9 -9 -9 -8 -8 -9 -9 -9 -9 -9 -9 -9 -9 -9 -9 -10 -10 -11 -11 -12 -12 -14 -15 -16 -17 -19 -20 -20 -19 -19 -21 -24 -22 -16 -17 -18
-10 -10 -10 -10 -10 -10 -10 -10 -10 -10 -10 -10 -10 -10 -9 -9 -10 -10 -10 -10 -10 -11 -11 -13 -14 -15 -17 -19 -20 -21 -20 -22 -23 -22 -20 -19 -18 -18 -19 -19 -22 -20 -18
-10 -10 -10 -11 -10 -11 -11 -11 -11 -11 -11 -11 -11 -11 -11 -11 -11 -11 -11 -12 -14 -16 -16 -17 -17 -18 -18 -18 -20 -21 -20 -21 -22 -21 -20 -19 -19 -19 -20 -20 -19 -19 -20
-12 -11 -11 -11 -11 -11 -11 -11 -12 -12 -14 -15 -12 -13 -15 -17 -17 -16 -16 -17 -18 -18 -18 -18 -18 -18 -18 -19 -18 -19 -20 -21 -23 -25 -24 -23 -19 -19 -20 -19 -19 -20 -20
-12 -12 -13 -12 -12 -12 -12 -12 -13 -14 -16 -23 -18 -16 -18 -21 -21 -22 -21 -19 -20 -20 -21 -22 -22 -22 -23 -24 -24 -26 -27 -27 -27 -24 -23 -23 -21 -19 -18 -18 -17 -17 -18
-12 -12 -13 -14 -14 -13 -13 -13 -13 -14 -15 -16 -17 -18 -17 -19 -20 -22 -23 -22 -22 -22 -24 -24 -25 -27 -29 -29 -28 -28 -28 -29 -29 -29 -27 -23 -22 -19 -17 -18 -18 -18 -19
-14 -13 -13 -13 -14 -14 -14 -14 -14 -15 -15 -15 -16 -17 -18 -18 -19 -21 -24 -26 -25 -26 -28 -28 -29 -30 -30 -29 -28 -29 -30 -30 -30 -30 -29 -28 -27 -25 -22 -18 -19 -19 -19
-15 -14 -14 -15 -14 -15 -15 -15 -16 -16 -16 -16 -17 -17 -18 -19 -20 -20 -21 -24 -27 -28 -30 -30 -27 -28 -30 -30 -30 -30 -29 -29 -29 -29 -28 -28 -28 -28 -28 -25 -24 -21 -21
-16 -15 -15 -15 -16 -16 -16 -16 -16 -16 -17 -17 -17 -18 -18 -18 -19 -21 -22 -23 -25 -27 -29 -29 -29 -29 -30 -29 -29 -29 -29 -28 -28 -28 -28 -28 -28 -28 -28 -26 -24 -22 -21
-17 -16 -16 -16 -16 -16 -17 -17 -17 -17 -18 -18 -18 -19 -19 -19 -19 -20 -21 -23 -24 -27 -28 -29 -28 -29 -29 -30 -29 -29 -29 -28 -28 -28 -28 -28 -27 -27 -27 -27 -26 -26 -22

GFSGL_850_dewp_108.txt.gz
Dewpoint
10 10 9 12 11 10 10 10 12 12 11 11 10 7 9 9 9 9 9 9 10 10 10 10 10 9 9 8 9 9 7 6 5 5 6 6 6 6 5 5 4 5 6
10 12 12 12 12 11 10 10 12 12 10 10 10 6 9 10 8 10 10 9 10 10 10 10 10 9 9 8 7 7 8 6 5 5 4 4 5 6 7 6 5 5 5
10 11 11 11 11 10 10 10 11 11 10 10 8 8 9 9 9 9 10 9 10 10 10 10 9 9 9 9 7 7 8 8 8 6 5 5 5 7 7 5 4 4 6
7 9 10 11 11 11 11 11 11 10 10 8 8 9 9 9 9 9 9 10 9 9 9 10 9 8 8 8 7 8 8 8 7 6 5 5 6 6 5 5 6 5 4
4 7 9 9 10 10 10 10 11 10 9 8 8 8 9 9 9 9 9 9 9 9 8 8 8 8 9 9 9 9 9 8 8 8 7 7 7 7 7 5 4 4 6
2 3 4 7 8 8 10 10 10 10 10 8 9 9 9 9 9 9 9 9 9 9 9 9 9 9 9 9 9 9 8 8 8 8 8 8 7 7 6 5 4 6 8
1 1 2 3 5 6 7 6 10 9 9 10 9 9 9 8 8 9 9 9 9 9 9 9 9 9 9 9 9 8 8 8 8 7 8 7 6 5 5 5 7 8 8
-0 0 1 1 2 1 3 3 6 7 9 9 9 9 9 9 8 8 8 8 8 8 8 9 9 8 8 8 8 8 8 8 8 8 8 7 7 7 7 8 7 7 7
-1 -1 -1 0 1 1 0 0 1 1 3 2 5 6 8 8 8 8 8 8 8 8 8 8 8 8 8 8 8 8 8 8 8 8 8 7 8 7 7 7 6 6 5
-2 -2 -1 -1 -1 -1 -0 -0 0 0 0 1 -0 1 2 4 6 7 5 6 7 7 6 6 7 7 7 6 7 6 6 6 6 5 5 4 5 4 5 4 4 3 3
-3 -2 -2 -1 -2 -1 -1 -1 -0 -0 0 0 -0 0 0 0 1 2 2 2 3 2 2 2 2 3 3 4 3 3 3 2 2 1 1 1 2 1 1 2 1 0 -0
-4 -4 -3 -3 -2 -2 -2 -2 -1 -1 -1 -1 -0 -1 -2 -1 -0 -0 0 0 0 1 0 -0 -1 -0 1 2 2 2 1 1 0 -0 0 -0 -1 -2 -3 -4 -6 -6 -6
-7 -5 -5 -4 -4 -3 -3 -3 -3 -3 -3 -3 -3 -3 -4 -3 -2 -2 -1 -1 -1 -1 -1 -2 -2 -2 -1 -1 -1 -1 -1 -1 -2 -2 -3 -4 -6 -6 -7 -7 -8 -8 -9
-7 -8 -8 -6 -6 -5 -5 -5 -5 -4 -5 -5 -5 -6 -6 -6 -5 -4 -4 -4 -3 -3 -4 -4 -3 -3 -3 -3 -4 -4 -4 -4 -5 -5 -7 -8 -8 -8 -9 -9 -8 -9 -9
-8 -8 -8 -8 -8 -7 -7 -7 -7 -7 -7 -6 -7 -7 -7 -7 -7 -7 -6 -6 -5 -5 -5 -5 -5 -6 -6 -7 -7 -7 -7 -8 -8 -8 -8 -8 -9 -11 -12 -14 -15 -17 -20
-8 -8 -8 -9 -9 -9 -9 -8 -8 -8 -8 -7 -7 -7 -8 -8 -7 -7 -7 -7 -7 -7 -6 -6 -7 -7 -7 -8 -8 -8 -8 -9 -10 -10 -11 -12 -13 -13 -15 -16 -17 -20 -24
-9 -9 -9 -9 -9 -9 -9 -10 -9 -8 -8 -8 -9 -9 -9 -9 -9 -9 -9 -9 -9 -9 -9 -10 -10 -11 -11 -11 -12 -13 -13 -14 -13 -13 -14 -16 -18 -19 -18 -17 -17 -19 -22
-10 -10 -10 -10 -10 -10 -10 -10 -10 -10 -10 -9 -9 -9 -9 -9 -10 -10 -10 -10 -10 -11 -11 -12 -13 -15 -17 -19 -20 -20 -19 -19 -20 -20 -19 -20 -20 -19 -19 -22 -21 -18 -19
-11 -11 -11 -11 -11 -11 -11 -11 -11 -11 -11 -11 -11 -11 -11 -11 -11 -11 -11 -12 -13 -14 -16 -18 -19 -20 -19 -19 -20 -21 -21 -21 -21 -20 -19 -19 -20 -20 -22 -22 -21 -20 -20
-13 -13 -12 -12 -12 -11 -12 -12 -12 -13 -16 -14 -12 -13 -15 -17 -15 -14 -15 -16 -18 -19 -19 -19 -19 -19 -19 -19 -19 -20 -21 -21 -22 -22 -22 -22 -21 -21 -21 -20 -20 -21 -21
-12 -12 -13 -14 -13 -12 -13 -13 -14 -14 -17 -20 -16 -16 -18 -21 -21 -20 -19 -18 -19 -19 -19 -20 -20 -20 -21 -22 -22 -23 -23 -24 -23 -23 -23 -22 -21 -21 -21 -21 -21 -22 -22
-13 -13 -13 -13 -14 -13 -13 -14 -14 -14 -15 -16 -17 -18 -18 -19 -20 -21 -21 -20 -20 -20 -21 -22 -24 -24 -25 -25 -26 -27 -26 -27 -28 -28 -27 -26 -24 -23 -23 -22 -21 -22 -23
-15 -14 -14 -14 -14 -14 -14 -15 -15 -15 -15 -16 -16 -17 -17 -18 -20 -22 -23 -24 -24 -25 -26 -28 -28 -29 -29 -29 -29 -30 -30 -30 -30 -30 -30 -30 -28 -26 -27 -26 -23 -22 -22
-16 -15 -15 -15 -15 -15 -15 -15 -16 -16 -16 -16 -17 -17 -18 -18 -19 -20 -21 -24 -26 -27 -27 -29 -30 -29 -30 -30 -30 -30 -30 -30 -30 -29 -29 -29 -29 -29 -28 -27 -26 -24 -22
-17 -16 -16 -16 -16 -16 -16 -16 -17 -17 -17 -17 -18 -18 -18 -19 -19 -20 -21 -23 -26 -27 -28 -29 -29 -29 -29 -29 -28 -28 -29 -28 -28 -28 -28 -28 -28 -28 -28 -27 -26 -24 -23
-18 -17 -17 -17 -17 -17 -17 -17 -17 -18 -18 -18 -18 -18 -19 -19 -19 -20 -20 -21 -23 -25 -27 -28 -28 -28 -28 -28 -28 -28 -29 -28 -28 -28 -28 -28 -28 -28 -28 -28 -28 -27 -27

GFSGL_850_dewp_114.txt.gz
Dewpoint
8 8 9 9 6 4 7 11 12 12 11 11 11 11 11 11 11 11 10 10 10 10 9 9 9 9 9 9 9 9 9 9 8 8 7 5 4 6 6 6 6 7 6
7 8 9 9 9 10 8 10 11 12 12 11 10 10 10 11 11 11 10 10 10 10 10 8 10 9 10 10 9 9 9 9 8 6 6 6 5 5 6 6 6 7 7
5 7 8 9 9 10 10 11 11 11 12 12 11 9 9 10 12 11 12 10 8 10 8 9 9 9 9 9 9 9 9 8 7 7 7 7 8 5 7 7 7 6 5
3 5 6 7 8 9 9 10 10 10 10 11 11 10 10 10 11 11 10 7 9 9 8 9 9 9 10 10 9 9 9 8 8 7 8 7 7 8 7 7 7 6 6
1 2 3 4 5 7 8 9 9 9 9 10 10 11 11 11 11 10 8 9 9 8 8 9 9 9 9 9 9 9 9 8 8 7 7 8 7 7 7 6 6 7 7
0 1 1 2 3 4 5 6 7 8 9 9 9 9 9 10 9 8 9 9 8 8 8 8 8 8 9 9 9 9 9 8 8 8 8 8 7 7 6 7 7 8 7
-1 -0 0 0 1 1 2 3 4 5 5 6 6 8 8 7 9 9 9 9 8 8 9 9 9 9 9 9 9 9 8 9 9 8 7 7 7 7 8 8 7 7 7
-2 -1 -1 -0 0 0 1 1 1 2 3 3 4 4 5 6 8 8 8 8 9 9 9 9 8 9 9 9 8 9 8 8 8 8 8 8 8 8 8 8 8 8 8
-2 -2 -2 -1 -1 -1 -0 -0 0 1 1 1 1 2 3 3 3 5 6 7 7 8 8 8 8 8 8 8 8 8 8 8 8 8 8 8 8 8 8 8 7 7 7
-4 -4 -3 -2 -2 -1 -1 -1 -1 -0 -0 -0 0 1 1 1 1 1 2 2 4 5 6 7 6 8 8 8 8 7 7 7 7 7 7 7 7 7 7 7 7 7 7
-7 -5 -4 -4 -3 -3 -2 -2 -2 -1 -1 -1 -1 -2 -1 -1 -1 -1 0 1 1 1 1 1 2 3 3 4 5 5 4 5 4 3 3 3 3 4 5 5 4 4 3
-8 -8 -7 -5 -5 -4 -4 -3 -3 -3 -3 -3 -3 -3 -3 -3 -2 -2 -1 -1 -1 -0 -0 -1 -0 -1 -0 -0 0 1 0 0 0 0 0 -0 -0 0 -0 1 1 1 1
-8 -8 -9 -8 -7 -6 -5 -5 -5 -5 -5 -5 -5 -5 -5 -5 -5 -4 -3 -3 -2 -2 -3 -3 -3 -2 -2 -2 -3 -2 -2 -2 -2 -1 -1 -2 -2 -3 -4 -3 -4 -3 -2
-9 -9 -9 -9 -9 -8 -8 -7 -7 -7 -7 -7 -7 -7 -6 -6 -6 -6 -5 -5 -4 -4 -4 -4 -3 -3 -3 -4 -4 -4 -4 -3 -3 -3 -4 -4 -4 -5 -5 -6 -6 -6 -5
-10 -9 -9 -9 -10 -9 -9 -8 -8 -8 -8 -8 -8 -8 -7 -8 -8 -7 -6 -6 -6 -6 -5 -5 -5 -4 -5 -5 -5 -5 -5 -6 -5 -5 -6 -6 -7 -7 -7 -9 -11 -11 -14
-10 -10 -10 -10 -10 -10 -10 -10 -9 -9 -9 -9 -9 -9 -9 -9 -9 -9 -9 -9 -8 -7 -6 -6 -6 -7 -7 -7 -7 -7 -7 -7 -8 -8 -8 -8 -8 -8 -7 -7 -10 -15 -24
-15 -13 -12 -12 -11 -11 -11 -11 -11 -11 -11 -10 -10 -10 -9 -10 -10 -10 -10 -10 -10 -10 -10 -10 -10 -10 -10 -10 -10 -10 -9 -10 -10 -10 -10 -11 -12 -15 -18 -19 -21 -22 -24
-15 -15 -16 -16 -15 -13 -13 -13 -13 -13 -14 -13 -12 -12 -12 -11 -11 -11 -12 -12 -11 -12 -13 -15 -16 -17 -17 -18 -19 -19 -19 -19 -19 -19 -20 -19 -20 -21 -22 -22 -22 -23 -23
-16 -16 -15 -15 -16 -15 -14 -14 -15 -16 -17 -17 -15 -15 -15 -17 -18 -15 -14 -15 -16 -18 -19 -20 -19 -19 -20 -20 -21 -22 -22 -22 -22 -22 -22 -22 -23 -23 -23 -22 -22 -24 -26
-18 -17 -17 -16 -15 -15 -15 -14 -15 -16 -17 -17 -19 -21 -22 -23 -22 -21 -20 -19 -19 -20 -19 -19 -19 -19 -19 -19 -20 -21 -21 -22 -23 -23 -23 -23 -25 -25 -26 -26 -26 -26 -27
-18 -17 -17 -18 -17 -15 -14 -15 -15 -15 -16 -17 -18 -19 -20 -20 -21 -21 -20 -20 -20 -20 -21 -21 -21 -21 -21 -22 -24 -24 -24 -25 -24 -24 -24 -25 -25 -24 -25 -25 -26 -26 -27
-21 -18 -17 -17 -17 -16 -15 -15 -15 -16 -16 -16 -17 -18 -18 -20 -21 -21 -22 -23 -23 -22 -22 -23 -23 -24 -25 -26 -27 -28 -28 -28 -28 -27 -26 -25 -24 -25 -25 -26 -27 -28 -28
-22 -18 -17 -17 -17 -16 -16 -16 -16 -16 -16 -17 -17 -18 -18 -19 -20 -21 -22 -23 -24 -25 -26 -26 -27 -27 -28 -29 -30 -30 -30 -30 -30 -30 -30 -30 -29 -29 -29 -29 -28 -28 -28
-21 -18 -18 -19 -19 -18 -17 -17 -17 -17 -17 -17 -18 -18 -18 -19 -19 -20 -21 -22 -24 -25 -26 -27 -28 -28 -28 -29 -30 -30 -30 -30 -30 -30 -29 -29 -29 -29 -29 -28 -28 -28 -27
-21 -19 -19 -19 -19 -18 -18 -18 -17 -17 -18 -18 -19 -19 -19 -19 -20 -20 -20 -21 -22 -24 -25 -25 -26 -27 -27 -28 -29 -29 -30 -29 -29 -29 -29 -29 -28 -28 -28 -28 -28 -28 -28
-20 -20 -21 -20 -19 -19 -19 -19 -19 -19 -19 -19 -19 -20 -20 -20 -20 -21 -21 -21 -22 -22 -24 -25 -25 -27 -27 -28 -29 -29 -29 -30 -29 -28 -28 -28 -28 -28 -28 -28 -28 -28 -28

GFSGL_850_dewp_117.txt.gz
Dewpoint
6 7 8 8 8 7 7 11 12 12 11 10 10 11 9 10 9 11 12 11 10 10 10 10 10 9 9 9 9 9 9 9 9 9 9 9 8 7 8 7 6 6 6
5 6 7 7 8 9 9 7 7 11 11 11 11 11 11 10 10 10 11 11 11 10 10 10 9 9 9 9 9 9 9 9 9 9 9 9 8 8 6 6 6 7 7
4 5 6 7 8 8 9 9 10 9 10 11 10 11 11 12 11 11 11 11 11 11 10 10 9 9 9 9 9 9 9 9 9 9 9 9 9 8 5 3 6 7 7
2 4 4 5 6 7 8 9 9 10 10 10 10 10 10 10 11 11 11 11 11 11 10 10 9 8 8 9 9 9 9 9 9 9 8 8 8 7 7 5 6 7 7
1 1 2 2 3 5 6 7 8 8 9 9 9 9 9 9 10 10 10 10 11 11 9 8 8 8 8 9 9 9 9 9 8 8 8 8 8 7 7 7 6 7 7
-0 -0 0 1 1 2 3 4 5 6 6 8 8 8 9 9 9 10 10 9 9 9 8 8 8 8 8 8 9 9 9 9 9 9 8 7 7 7 8 8 6 8 8
-1 -1 -1 -0 -0 0 1 2 2 3 4 4 5 5 5 6 7 9 9 9 9 9 8 8 8 8 8 8 8 9 9 9 9 9 8 8 7 7 7 7 7 7 7
-2 -2 -1 -1 -1 -1 -0 -0 1 1 1 2 2 3 3 4 5 6 7 8 8 8 9 8 8 8 8 9 9 9 8 8 8 8 8 8 8 7 8 8 7 7 7
-4 -3 -2 -2 -2 -1 -1 -1 -1 -0 0 -0 0 1 1 1 2 3 4 5 6 6 6 7 8 8 8 8 8 9 8 8 8 8 8 8 8 8 8 8 8 8 7
-6 -5 -4 -3 -3 -2 -2 -2 -2 -1 -2 -2 -1 -1 -1 -1 -1 0 2 3 3 3 3 3 4 7 7 7 7 7 7 7 8 8 8 8 8 8 8 8 7 7 7
-8 -7 -6 -5 -5 -4 -4 -3 -3 -3 -3 -3 -3 -3 -2 -2 -2 -1 -1 -0 0 1 1 1 1 1 2 3 3 4 4 4 4 4 5 5 6 5 6 6 6 5 5
-9 -9 -8 -7 -6 -6 -6 -5 -5 -5 -5 -5 -5 -4 -4 -4 -4 -3 -3 -2 -2 -1 -1 -1 -1 -1 -0 -0 0 0 0 0 0 -0 0 0 1 2 2 2 2 3 2
-9 -9 -9 -9 -9 -8 -8 -7 -7 -7 -6 -6 -7 -7 -6 -6 -6 -5 -5 -4 -4 -4 -4 -4 -3 -3 -2 -2 -2 -2 -2 -2 -2 -2 -2 -3 -4 -3 -2 -2 -2 -2 -1
-10 -10 -10 -10 -10 -10 -9 -9 -9 -8 -8 -8 -8 -8 -8 -8 -8 -7 -6 -6 -5 -5 -5 -4 -4 -4 -3 -4 -3 -3 -3 -4 -3 -3 -4 -4 -5 -5 -4 -4 -3 -4 -3
-12 -12 -12 -11 -11 -10 -10 -10 -10 -10 -9 -9 -9 -9 -9 -9 -9 -9 -9 -8 -7 -6 -5 -5 -5 -5 -5 -5 -5 -5 -6 -5 -5 -5 -6 -6 -6 -6 -5 -6 -6 -6 -5
-17 -17 -17 -16 -14 -13 -12 -12 -12 -11 -11 -10 -10 -10 -10 -10 -10 -10 -10 -10 -9 -8 -7 -7 -7 -7 -7 -7 -7 -7 -7 -7 -7 -7 -7 -7 -7 -8 -7 -7 -7 -8 -7
-18 -18 -18 -19 -18 -18 -18 -18 -17 -16 -14 -13 -12 -12 -12 -11 -11 -11 -12 -11 -11 -11 -11 -11 -11 -11 -11 -10 -10 -9 -9 -9 -9 -9 -9 -9 -9 -10 -14 -21 -24 -25 -27
-18 -18 -19 -19 -19 -18 -18 -18 -18 -19 -20 -20 -19 -18 -16 -15 -17 -15 -15 -13 -13 -15 -16 -17 -18 -19 -19 -20 -20 -20 -20 -19 -20 -20 -20 -21 -20 -20 -21 -23 -24 -25 -25
-20 -19 -19 -19 -18 -18 -17 -17 -17 -18 -19 -20 -20 -22 -23 -24 -21 -19 -18 -18 -19 -20 -21 -20 -20 -20 -20 -21 -22 -22 -22 -22 -22 -22 -23 -23 -23 -22 -24 -24 -24 -25 -25
-22 -19 -18 -19 -18 -17 -16 -16 -16 -17 -17 -18 -20 -21 -23 -22 -23 -24 -23 -21 -20 -20 -20 -20 -20 -20 -21 -21 -21 -22 -22 -23 -23 -23 -24 -24 -25 -25 -26 -26 -27 -27 -28
-24 -21 -20 -19 -18 -17 -16 -16 -16 -16 -17 -17 -18 -19 -20 -22 -23 -23 -22 -21 -20 -21 -22 -22 -21 -22 -22 -24 -25 -25 -24 -24 -24 -24 -25 -25 -25 -25 -26 -27 -28 -29 -29
-23 -20 -19 -19 -18 -17 -16 -16 -16 -16 -17 -17 -17 -18 -19 -20 -21 -22 -23 -24 -24 -22 -22 -22 -23 -24 -25 -26 -28 -28 -28 -28 -26 -25 -24 -25 -25 -26 -27 -27 -28 -28 -29
-23 -21 -19 -19 -20 -19 -18 -17 -17 -17 -17 -17 -18 -18 -19 -19 -20 -21 -22 -24 -24 -25 -25 -26 -26 -26 -28 -29 -30 -30 -30 -30 -30 -29 -28 -27 -27 -28 -28 -28 -28 -28 -29
-23 -22 -21 -22 -21 -20 -19 -18 -17 -18 -18 -18 -18 -19 -19 -19 -20 -20 -21 -21 -23 -24 -26 -26 -27 -27 -28 -28 -29 -29 -29 -30 -30 -29 -29 -29 -29 -29 -29 -28 -28 -28 -28
-22 -21 -21 -22 -21 -20 -19 -19 -19 -18 -18 -19 -19 -19 -20 -20 -20 -20 -20 -21 -22 -22 -23 -24 -25 -26 -27 -28 -28 -28 -29 -29 -29 -29 -29 -29 -29 -29 -29 -29 -29 -29 -29
-21 -21 -21 -21 -20 -21 -20 -20 -20 -20 -19 -20 -20 -20 -20 -21 -21 -21 -21 -21 -22 -22 -23 -24 -25 -26 -27 -28 -28 -29 -30 -30 -29 -28 -29 -29 -28 -28 -28 -28 -28 -28 -28

GFSGL_850_dewp_120.txt.gz
Dewpoint
6 7 7 8 9 9 10 10 11 11 11 12 12 12 12 11 9 9 9 9 7 12 12 10 10 10 11 11 10 9 8 9 10 9 9 9 10 9 9 9 9 7 7
4 5 7 7 8 8 8 9 8 8 10 11 11 11 11 11 10 12 10 9 10 12 12 12 11 10 10 11 10 9 9 9 9 9 9 9 9 9 9 9 9 7 7
4 5 5 6 7 7 7 8 9 9 9 10 11 11 11 11 11 11 11 12 11 12 12 12 11 11 10 10 10 9 9 9 9 9 9 9 9 9 9 9 9 7 7
1 2 3 4 4 5 6 7 8 8 9 10 10 10 10 10 10 10 10 10 11 11 11 11 11 11 10 10 10 9 9 9 9 10 9 9 9 9 9 9 8 8 8
-0 0 0 1 2 3 4 5 5 6 7 8 9 9 9 10 10 10 10 10 10 10 10 10 11 11 10 9 9 8 8 9 9 9 9 8 8 8 8 8 8 8 6
-1 -1 -0 -0 0 1 1 2 3 3 4 4 6 6 7 7 8 9 9 9 10 10 9 9 9 8 7 9 8 8 9 9 9 9 9 8 8 8 8 8 7 7 7
-2 -1 -1 -1 -0 -0 0 1 1 1 1 2 3 3 4 4 5 6 7 8 8 8 9 9 9 8 8 8 8 8 9 9 9 9 9 9 8 8 8 8 7 7 7
-3 -2 -2 -2 -1 -1 -1 -1 -1 -0 -0 -0 0 1 1 2 3 4 5 5 5 7 7 8 8 8 8 8 9 8 9 8 9 9 9 8 8 8 8 7 7 8 7
-5 -5 -4 -3 -3 -3 -2 -2 -2 -2 -2 -2 -2 -1 -1 -1 0 1 2 2 3 4 4 4 5 6 8 8 8 8 8 9 9 8 8 8 8 8 8 8 8 7 7
-8 -7 -6 -5 -5 -4 -4 -4 -4 -3 -3 -3 -3 -3 -3 -2 -1 -1 -0 0 1 1 1 2 3 3 3 5 7 5 7 7 7 8 7 8 8 8 8 8 8 8 7
-9 -9 -8 -7 -6 -6 -6 -6 -5 -5 -5 -5 -4 -4 -4 -4 -3 -3 -2 -2 -1 -1 -0 0 -0 0 1 3 3 2 2 4 4 4 4 5 6 6 6 7 6 6 6
-8 -9 -9 -9 -9 -9 -8 -8 -7 -7 -7 -6 -6 -6 -6 -5 -5 -5 -4 -4 -4 -3 -3 -3 -3 -2 -1 -0 0 1 0 -0 1 -0 0 0 1 2 2 3 3 3 3
-8 -8 -9 -9 -9 -9 -9 -9 -9 -9 -8 -8 -8 -8 -8 -8 -7 -6 -6 -5 -5 -4 -4 -4 -4 -3 -2 -2 -2 -2 -2 -1 -1 -1 -2 -2 -2 -2 -2 -2 -2 -1 -0
-10 -10 -10 -10 -10 -10 -10 -10 -10 -10 -9 -9 -9 -9 -9 -10 -10 -10 -9 -7 -6 -5 -5 -5 -5 -4 -4 -4 -4 -3 -3 -4 -3 -3 -4 -5 -5 -4 -3 -4 -3 -3 -3
-12 -11 -12 -11 -11 -12 -11 -15 -14 -13 -12 -11 -11 -10 -10 -10 -10 -11 -11 -10 -9 -7 -6 -6 -6 -6 -6 -6 -6 -6 -5 -6 -6 -6 -6 -6 -5 -5 -5 -5 -5 -5 -5
-12 -12 -12 -11 -11 -12 -12 -13 -13 -18 -17 -16 -15 -14 -12 -12 -12 -12 -12 -11 -11 -10 -9 -8 -7 -7 -8 -8 -7 -7 -7 -7 -7 -7 -7 -7 -7 -7 -6 -6 -6 -6 -7
-12 -15 -11 -11 -11 -11 -12 -12 -12 -12 -17 -21 -22 -22 -20 -17 -16 -16 -15 -14 -13 -13 -11 -11 -11 -11 -11 -11 -10 -10 -9 -9 -9 -8 -8 -8 -8 -8 -8 -8 -8 -8 -8
-16 -12 -12 -12 -12 -12 -13 -13 -13 -13 -13 -13 -19 -24 -24 -25 -24 -20 -17 -13 -12 -14 -14 -13 -13 -13 -13 -13 -13 -13 -14 -15 -17 -14 -14 -15 -14 -13 -15 -15 -14 -18 -20
-18 -13 -16 -13 -13 -13 -13 -13 -13 -13 -13 -14 -14 -17 -24 -25 -24 -23 -22 -17 -14 -14 -14 -14 -14 -14 -14 -14 -14 -15 -16 -19 -17 -15 -14 -14 -14 -14 -18 -22 -22 -20 -16
-14 -14 -15 -14 -13 -13 -13 -14 -14 -14 -14 -14 -15 -17 -21 -16 -16 -16 -17 -17 -16 -16 -16 -16 -16 -16 -17 -16 -16 -16 -15 -15 -15 -14 -14 -14 -14 -14 -14 -15 -17 -18 -17
-15 -14 -15 -14 -14 -14 -14 -14 -14 -15 -15 -15 -16 -17 -19 -17 -17 -17 -18 -18 -18 -18 -18 -18 -18 -19 -18 -18 -18 -18 -18 -17 -17 -16 -15 -15 -15 -14 -15 -15 -17 -17 -17
-16 -15 -15 -15 -15 -15 -15 -15 -15 -15 -15 -16 -16 -17 -18 -18 -18 -18 -19 -19 -19 -19 -19 -19 -19 -23 -25 -26 -26 -22 -23 -22 -21 -18 -17 -17 -16 -16 -16 -16 -15 -15 -16
-16 -16 -16 -16 -16 -16 -16 -16 -16 -16 -16 -16 -17 -17 -18 -18 -19 -19 -19 -20 -20 -21 -25 -23 -24 -26 -27 -28 -29 -29 -29 -29 -28 -26 -20 -18 -17 -17 -17 -16 -17 -16 -17
-17 -17 -17 -17 -17 -17 -17 -17 -17 -17 -17 -17 -17 -18 -18 -19 -19 -20 -20 -21 -21 -21 -23 -25 -26 -27 -27 -28 -28 -29 -29 -29 -29 -29 -28 -24 -18 -19 -18 -18 -18 -25 -19
-17 -18 -18 -18 -18 -18 -18 -18 -18 -18 -18 -18 -18 -18 -18 -19 -19 -20 -20 -21 -21 -21 -22 -23 -25 -26 -27 -27 -28 -28 -29 -29 -29 -29 -29 -29 -29 -28 -28 -23 -22 -21 -26
-17 -18 -18 -18 -18 -18 -18 -19 -19 -19 -19 -19 -19 -19 -19 -19 -20 -20 -21 -21 -22 -22 -22 -22 -24 -26 -26 -26 -28 -29 -29 -30 -29 -28 -28 -28 -27 -26 -24 -27 -28 -20 -24

GFSGL_850_dewp_123.txt.gz
Dewpoint
2 2 5 5 7 9 9 9 11 11 12 12 12 12 12 12 12 13 13 12 12 11 10 9 9 10 12 11 11 11 11 10 11 8 10 8 9 9 9 9 9 9 9
2 4 5 6 8 8 8 9 9 9 10 11 11 11 11 11 11 12 12 12 10 10 9 6 7 7 9 11 12 11 11 11 11 9 8 9 8 9 9 9 9 9 9
0 2 3 4 4 4 6 7 8 8 9 9 10 11 11 11 11 11 11 11 11 11 10 11 11 11 12 12 12 12 11 11 11 10 9 10 9 9 9 9 9 9 9
-3 -3 -0 2 2 4 4 5 6 7 8 8 9 9 10 10 10 10 10 11 11 11 11 11 11 11 11 11 11 11 11 10 10 10 10 8 9 9 9 9 9 9 9
-3 -2 -2 -0 1 2 3 3 4 5 5 5 6 7 8 8 9 10 10 10 10 10 10 10 10 10 11 11 11 11 10 10 10 9 9 9 9 9 9 9 9 8 8
-1 -1 -2 -1 -0 0 1 1 2 2 3 3 4 4 5 6 6 7 8 8 9 9 9 9 9 10 10 10 10 10 9 6 9 9 9 9 9 9 9 9 8 8 8
-2 -2 -1 -1 -1 -1 -2 -1 -0 -0 0 1 1 1 2 2 3 4 5 6 6 7 7 7 8 9 9 9 9 9 9 8 8 8 9 9 9 9 9 8 8 8 8
-5 -4 -3 -3 -3 -3 -2 -2 -2 -2 -2 -2 -2 -1 -0 0 1 2 3 3 3 3 4 4 6 7 7 8 8 8 8 8 8 9 9 9 9 9 9 8 8 8 8
-8 -7 -6 -5 -5 -5 -4 -4 -4 -3 -3 -3 -3 -3 -2 -2 -1 -0 0 1 1 1 2 2 3 3 4 5 6 6 7 7 8 9 9 9 8 8 8 8 8 8 7
-8 -8 -8 -8 -7 -6 -6 -6 -5 -5 -5 -5 -5 -5 -4 -4 -3 -3 -2 -2 -1 -0 0 0 1 1 2 3 4 4 3 3 3 6 5 5 7 7 8 8 8 7 7
-7 -9 -9 -9 -9 -9 -8 -8 -7 -7 -7 -7 -7 -7 -7 -6 -6 -5 -4 -4 -4 -3 -3 -2 -2 -2 -1 0 1 2 1 1 1 2 2 2 3 5 5 6 6 7 6
-8 -8 -8 -8 -8 -8 -8 -9 -9 -9 -9 -9 -9 -9 -9 -9 -9 -8 -6 -5 -5 -5 -4 -4 -4 -3 -2 -2 -2 -2 -2 -1 -1 0 0 0 1 1 1 3 2 3 4
-10 -10 -9 -10 -10 -9 -9 -9 -12 -12 -10 -10 -10 -9 -9 -10 -10 -10 -10 -8 -6 -6 -5 -5 -5 -4 -4 -4 -4 -3 -3 -3 -3 -2 -2 -3 -3 -3 -2 -1 -0 -0 -0
-11 -11 -10 -10 -11 -11 -10 -11 -11 -17 -13 -11 -13 -12 -12 -11 -11 -11 -11 -11 -10 -8 -7 -6 -6 -5 -5 -5 -5 -5 -5 -5 -5 -5 -5 -5 -5 -5 -4 -4 -3 -3 -2
-12 -11 -11 -10 -10 -11 -11 -11 -11 -14 -19 -21 -20 -14 -14 -15 -15 -14 -13 -12 -12 -11 -8 -8 -7 -7 -7 -7 -7 -6 -6 -7 -7 -7 -7 -6 -6 -6 -5 -6 -5 -5 -5
-11 -11 -11 -10 -11 -11 -11 -11 -10 -11 -12 -14 -18 -24 -24 -24 -23 -19 -17 -14 -13 -12 -9 -9 -10 -10 -10 -10 -10 -9 -8 -8 -8 -8 -8 -7 -7 -7 -7 -7 -6 -7 -7
-12 -11 -11 -11 -11 -11 -11 -11 -11 -11 -11 -12 -13 -16 -23 -26 -27 -26 -21 -15 -12 -13 -11 -11 -11 -11 -11 -11 -11 -10 -11 -11 -10 -10 -10 -10 -9 -9 -8 -8 -8 -8 -8
-19 -12 -12 -11 -11 -12 -12 -11 -11 -11 -11 -12 -12 -13 -17 -17 -18 -22 -25 -14 -11 -12 -12 -12 -12 -12 -12 -12 -12 -13 -12 -12 -12 -11 -12 -11 -11 -11 -11 -11 -11 -12 -11
-13 -12 -13 -12 -12 -12 -12 -12 -12 -12 -12 -12 -13 -13 -17 -16 -14 -14 -15 -14 -14 -14 -14 -13 -14 -14 -14 -14 -14 -14 -13 -13 -13 -13 -12 -12 -12 -12 -12 -13 -14 -13 -13
-13 -13 -13 -13 -12 -13 -13 -13 -13 -13 -13 -13 -13 -14 -17 -17 -14 -15 -15 -16 -16 -16 -16 -15 -16 -16 -16 -16 -15 -15 -14 -14 -14 -13 -13 -13 -13 -12 -12 -12 -12 -13 -14
-13 -13 -14 -14 -14 -14 -14 -14 -14 -14 -14 -14 -14 -15 -16 -17 -15 -16 -16 -17 -17 -17 -17 -17 -17 -18 -18 -17 -17 -16 -16 -16 -16 -15 -15 -14 -14 -13 -13 -13 -13 -14 -15
-15 -15 -15 -15 -15 -15 -15 -15 -14 -15 -14 -14 -15 -15 -16 -16 -16 -17 -17 -18 -18 -19 -19 -19 -19 -19 -19 -19 -19 -19 -18 -18 -18 -17 -16 -15 -15 -15 -14 -14 -14 -14 -15
-15 -15 -15 -16 -15 -15 -16 -15 -15 -15 -15 -15 -15 -15 -16 -16 -17 -17 -18 -19 -19 -19 -20 -20 -20 -20 -20 -20 -20 -20 -23 -23 -23 -25 -19 -17 -16 -16 -15 -15 -15 -15 -15
-16 -15 -15 -16 -16 -16 -16 -16 -16 -16 -16 -16 -16 -16 -16 -17 -17 -18 -18 -19 -20 -20 -20 -21 -21 -23 -26 -26 -26 -27 -29 -29 -29 -29 -27 -19 -17 -17 -16 -16 -17 -19 -17
-16 -16 -16 -16 -16 -16 -16 -16 -17 -17 -17 -17 -17 -17 -17 -17 -18 -18 -18 -19 -20 -20 -21 -21 -22 -22 -22 -26 -27 -28 -29 -29 -28 -28 -28 -19 -22 -19 -22 -18 -18 -18 -21
-16 -16 -16 -16 -16 -16 -16 -17 -17 -17 -17 -17 -18 -18 -18 -18 -18 -18 -19 -19 -20 -20 -21 -21 -22 -22 -24 -22 -24 -27 -29 -30 -30 -28 -28 -20 -20 -19 -19 -19 -23 -18 -19

GFSGL_850_dewp_126.txt.gz
Dewpoint
-2 1 7 7 8 9 9 9 9 10 10 10 11 11 12 12 12 12 12 12 12 12 12 11 8 6 9 7 8 7 10 12 11 9 10 10 10 10 9 8 8 8 9
-1 3 4 3 4 6 8 8 9 10 9 10 11 12 11 12 12 11 12 12 12 11 11 12 11 11 9 5 4 6 7 8 9 11 10 10 11 9 8 8 8 9 9
-0 1 3 3 2 5 6 8 8 8 9 8 9 10 11 11 11 11 11 11 11 11 11 11 12 11 11 9 7 9 10 9 8 11 11 10 11 10 9 9 8 9 9
-2 -1 2 0 0 0 3 4 6 7 7 8 8 8 9 9 10 10 10 10 10 10 10 11 11 11 11 11 11 11 11 11 11 11 11 10 10 9 9 9 8 9 9
-3 -2 -1 1 -0 0 2 3 3 5 5 5 6 7 7 7 7 8 8 9 9 9 10 10 10 10 10 10 11 11 11 11 11 10 11 9 10 8 8 8 8 9 9
-3 -5 -4 -2 -2 -3 -2 -1 -1 0 1 2 1 2 2 3 3 5 6 6 6 7 8 8 8 9 9 10 10 10 10 10 10 10 10 9 9 9 9 8 9 9 9
-5 -5 -4 -4 -4 -3 -3 -3 -3 -2 -2 -2 -1 -1 0 1 1 2 2 3 3 4 4 5 5 6 7 8 9 9 9 10 10 9 9 9 9 9 8 9 9 9 9
-8 -8 -7 -6 -5 -5 -4 -4 -4 -4 -4 -4 -3 -3 -2 -2 -1 -0 0 1 1 1 1 2 2 3 4 5 6 6 6 8 8 9 9 9 8 8 9 9 9 9 8
-9 -9 -8 -8 -7 -6 -6 -6 -6 -6 -5 -6 -5 -5 -5 -4 -4 -3 -3 -2 -1 -1 -0 -0 0 0 1 2 3 3 4 5 5 5 5 6 7 8 8 8 8 8 8
-8 -9 -9 -10 -10 -9 -9 -8 -8 -8 -7 -7 -8 -8 -9 -8 -7 -6 -5 -4 -4 -3 -3 -3 -2 -2 -1 -0 1 1 2 1 2 2 2 3 3 3 4 6 7 7 7
-9 -9 -10 -10 -11 -12 -12 -13 -11 -10 -10 -9 -9 -9 -9 -10 -10 -10 -9 -7 -6 -5 -5 -4 -4 -3 -3 -2 -1 -1 -1 -1 -1 -1 -0 0 1 1 2 3 4 4 5
-10 -9 -10 -11 -11 -10 -13 -17 -19 -18 -17 -16 -14 -13 -11 -11 -10 -10 -11 -9 -7 -6 -6 -5 -5 -5 -4 -4 -3 -3 -3 -3 -2 -2 -2 -1 -1 -1 -1 -0 0 2 3
-11 -12 -10 -12 -11 -11 -13 -15 -18 -20 -21 -21 -21 -21 -20 -20 -18 -14 -12 -12 -11 -8 -7 -7 -6 -6 -5 -5 -5 -5 -5 -4 -4 -4 -5 -5 -5 -4 -4 -3 -2 -2 -1
-12 -11 -12 -11 -11 -11 -12 -12 -14 -16 -17 -17 -19 -22 -22 -22 -23 -24 -23 -18 -14 -12 -9 -9 -8 -8 -7 -6 -6 -6 -6 -6 -6 -7 -6 -6 -6 -5 -4 -4 -4 -3 -2
-11 -13 -13 -11 -11 -11 -11 -11 -11 -12 -13 -14 -15 -17 -21 -21 -20 -26 -24 -19 -16 -12 -10 -10 -10 -10 -9 -9 -9 -8 -8 -8 -8 -8 -7 -7 -7 -6 -6 -6 -5 -5 -5
-17 -13 -13 -11 -11 -12 -12 -11 -11 -12 -12 -12 -12 -14 -15 -17 -17 -24 -24 -14 -13 -11 -11 -11 -11 -11 -11 -11 -11 -11 -10 -10 -10 -10 -9 -9 -9 -8 -8 -7 -7 -7 -8
-17 -11 -14 -12 -12 -12 -12 -12 -13 -13 -12 -11 -12 -13 -14 -21 -14 -14 -20 -13 -12 -13 -12 -13 -13 -12 -12 -12 -12 -13 -12 -12 -11 -11 -11 -11 -10 -10 -10 -9 -9 -9 -9
-15 -12 -15 -13 -13 -13 -13 -13 -13 -13 -13 -14 -12 -13 -14 -16 -15 -14 -14 -17 -15 -14 -14 -14 -14 -14 -14 -14 -14 -13 -13 -13 -13 -12 -12 -12 -11 -13 -12 -11 -11 -11 -10
-14 -13 -14 -14 -14 -13 -14 -14 -14 -14 -14 -14 -14 -14 -15 -16 -16 -15 -16 -17 -16 -15 -16 -15 -15 -16 -15 -15 -15 -14 -14 -14 -13 -13 -13 -13 -12 -12 -12 -12 -14 -13 -13
-14 -14 -14 -15 -14 -14 -15 -15 -14 -16 -15 -15 -14 -14 -14 -16 -17 -16 -16 -17 -17 -17 -17 -17 -17 -17 -17 -17 -16 -16 -15 -15 -15 -14 -14 -14 -13 -13 -13 -14 -13 -14 -15
-14 -14 -15 -15 -15 -15 -15 -15 -16 -14 -15 -15 -16 -14 -14 -16 -17 -17 -17 -17 -18 -18 -18 -18 -18 -18 -18 -19 -19 -17 -17 -17 -17 -15 -15 -14 -14 -14 -13 -13 -14 -15 -14
-15 -15 -15 -16 -15 -16 -16 -17 -15 -16 -17 -16 -17 -17 -15 -16 -17 -17 -18 -18 -19 -19 -19 -19 -19 -19 -20 -20 -20 -20 -19 -21 -22 -17 -16 -15 -15 -15 -15 -16 -14 -14 -15
-18 -15 -16 -16 -16 -16 -17 -17 -17 -18 -17 -17 -18 -18 -17 -16 -16 -17 -18 -19 -18 -20 -19 -20 -20 -21 -23 -22 -21 -24 -26 -27 -27 -25 -17 -16 -16 -16 -15 -15 -16 -15 -16
-17 -16 -16 -16 -16 -17 -17 -17 -18 -17 -18 -18 -18 -18 -18 -17 -17 -17 -18 -18 -18 -19 -20 -20 -21 -21 -22 -23 -26 -27 -28 -29 -28 -28 -24 -18 -17 -17 -16 -16 -17 -17 -19
-17 -17 -16 -15 -16 -16 -17 -17 -17 -18 -18 -19 -19 -18 -19 -18 -18 -19 -19 -18 -19 -20 -20 -21 -21 -21 -21 -23 -24 -24 -27 -29 -29 -28 -25 -22 -21 -19 -20 -18 -17 -18 -20
-17 -17 -17 -16 -16 -16 -17 -17 -17 -16 -17 -18 -20 -21 -21 -19 -18 -19 -19 -19 -19 -19 -20 -20 -21 -21 -21 -22 -23 -23 -26 -27 -29 -28 -26 -23 -20 -19 -19 -20 -19 -18 -19

GFSGL_850_dewp_129.txt.gz
Dewpoint
-3 -3 -2 -1 5 6 8 9 9 9 8 6 11 12 13 12 13 12 12 12 12 12 12 12 12 11 10 11 10 8 7 7 8 7 8 8 10 10 10 10 10 9 8
-4 -4 -4 -2 3 5 7 8 8 8 9 8 9 10 11 10 12 12 12 12 12 12 12 12 12 12 12 11 11 10 9 7 8 8 8 8 9 10 10 10 10 10 9
-5 -5 -4 -1 3 3 3 6 6 6 6 8 8 8 8 9 10 10 11 11 11 11 11 11 11 11 11 11 11 11 10 9 9 10 9 9 10 10 11 10 10 10 9
-5 -4 -4 -3 -0 1 1 2 4 4 5 6 6 6 8 8 9 9 10 10 9 10 10 10 10 10 10 10 11 10 11 11 10 10 10 10 11 11 10 10 10 10 9
-3 -3 -3 -3 -2 -0 2 1 1 1 1 1 3 5 6 7 7 7 7 8 8 8 8 8 8 9 9 9 10 10 10 10 10 11 11 11 11 10 10 10 9 10 9
-5 -4 -4 -3 -2 -1 -1 0 -0 -1 -0 0 1 1 2 2 2 3 4 5 5 5 6 6 6 6 7 7 8 8 9 9 10 10 10 10 10 10 10 9 10 9 9
-9 -8 -6 -6 -5 -5 -4 -3 -4 -3 -3 -4 -3 -2 -2 -2 -1 0 1 1 1 2 2 3 3 4 4 5 5 5 6 6 8 8 9 8 9 9 9 9 8 9 8
-11 -11 -10 -9 -8 -8 -8 -7 -6 -6 -6 -6 -5 -5 -4 -4 -3 -3 -2 -2 -1 -1 -1 -0 0 0 1 2 2 3 3 4 5 5 6 6 7 7 7 8 8 8 8
-10 -12 -13 -13 -12 -11 -9 -9 -9 -8 -9 -9 -9 -9 -9 -8 -7 -6 -5 -4 -4 -4 -3 -3 -2 -2 -1 -1 -0 1 1 2 2 2 3 3 3 4 4 6 6 7 7
-10 -10 -11 -15 -17 -19 -18 -14 -13 -12 -11 -10 -10 -10 -10 -10 -10 -10 -10 -9 -7 -6 -5 -5 -4 -4 -3 -3 -2 -1 -1 -1 -0 0 0 1 1 2 2 3 3 4 5
-10 -11 -11 -14 -17 -18 -20 -22 -21 -20 -20 -19 -18 -17 -15 -13 -11 -11 -11 -10 -10 -9 -8 -7 -6 -5 -5 -4 -4 -3 -3 -3 -2 -2 -1 -1 -1 -0 0 1 1 2 2
-11 -11 -11 -11 -13 -17 -18 -20 -23 -24 -24 -24 -23 -22 -22 -22 -22 -19 -15 -13 -12 -10 -9 -8 -7 -6 -6 -5 -5 -5 -5 -4 -4 -4 -4 -3 -3 -3 -3 -2 -2 -1 -0
-14 -12 -11 -11 -11 -11 -13 -14 -17 -20 -22 -22 -24 -24 -24 -24 -23 -24 -23 -21 -17 -12 -9 -9 -9 -9 -7 -7 -7 -6 -6 -6 -6 -6 -6 -6 -5 -5 -4 -3 -3 -3 -2
-16 -13 -11 -12 -13 -12 -11 -12 -14 -15 -15 -16 -17 -17 -21 -25 -23 -24 -23 -22 -20 -16 -11 -11 -11 -10 -10 -10 -8 -8 -8 -7 -8 -7 -7 -7 -6 -6 -6 -5 -4 -4 -3
-18 -19 -17 -14 -13 -14 -13 -13 -12 -12 -12 -13 -14 -14 -16 -18 -16 -13 -13 -12 -12 -12 -12 -14 -14 -13 -13 -12 -12 -11 -10 -9 -9 -9 -9 -8 -8 -7 -7 -7 -6 -6 -6
-19 -17 -18 -14 -12 -13 -13 -13 -12 -12 -12 -12 -12 -13 -13 -15 -14 -13 -18 -13 -13 -12 -13 -14 -14 -14 -14 -14 -14 -14 -14 -12 -11 -11 -11 -10 -10 -9 -9 -8 -8 -8 -8
-20 -16 -18 -16 -13 -12 -13 -14 -14 -14 -13 -12 -13 -13 -14 -16 -15 -14 -15 -19 -16 -15 -15 -15 -15 -15 -15 -15 -15 -13 -13 -13 -12 -12 -12 -12 -12 -12 -10 -10 -9 -9 -9
-19 -14 -17 -16 -14 -14 -15 -15 -15 -15 -16 -15 -13 -14 -15 -15 -15 -15 -17 -19 -21 -20 -17 -16 -16 -16 -17 -16 -15 -15 -14 -14 -13 -13 -13 -12 -12 -12 -14 -12 -12 -11 -11
-19 -15 -15 -15 -15 -15 -15 -16 -16 -16 -14 -15 -15 -15 -15 -16 -17 -18 -18 -19 -19 -20 -19 -18 -18 -17 -18 -18 -17 -16 -16 -15 -15 -14 -14 -13 -13 -13 -13 -13 -13 -13 -13
-22 -16 -17 -17 -16 -15 -15 -17 -18 -15 -16 -17 -16 -15 -16 -16 -16 -16 -17 -19 -19 -19 -20 -20 -19 -19 -19 -19 -20 -18 -17 -17 -16 -15 -14 -14 -14 -13 -14 -14 -13 -15 -15
-25 -19 -17 -18 -17 -16 -17 -17 -18 -17 -18 -18 -17 -18 -18 -18 -16 -16 -17 -18 -19 -20 -20 -21 -21 -21 -20 -20 -22 -22 -20 -19 -19 -17 -16 -15 -15 -14 -14 -14 -15 -14 -15
-18 -20 -17 -16 -17 -17 -18 -18 -18 -18 -19 -18 -19 -19 -19 -18 -17 -17 -17 -17 -18 -18 -19 -21 -21 -21 -21 -22 -25 -25 -24 -25 -24 -20 -17 -16 -15 -15 -15 -15 -15 -15 -15
-15 -15 -18 -17 -17 -16 -17 -18 -18 -18 -18 -19 -20 -21 -20 -20 -18 -17 -17 -18 -18 -18 -19 -21 -22 -22 -22 -23 -23 -25 -27 -28 -28 -26 -18 -17 -17 -16 -16 -16 -16 -16 -16
-15 -16 -18 -18 -17 -16 -16 -17 -18 -17 -17 -17 -17 -18 -20 -22 -22 -20 -18 -18 -19 -19 -19 -20 -21 -21 -22 -22 -23 -24 -25 -28 -28 -27 -23 -18 -18 -17 -17 -17 -17 -18 -19
-19 -18 -17 -17 -16 -16 -16 -16 -17 -17 -16 -17 -17 -18 -17 -17 -20 -22 -21 -20 -20 -20 -19 -20 -21 -21 -21 -22 -23 -23 -23 -26 -28 -27 -24 -21 -21 -20 -19 -18 -18 -18 -20
-18 -17 -17 -17 -17 -17 -17 -17 -18 -18 -18 -18 -18 -19 -19 -18 -17 -19 -21 -22 -22 -21 -20 -21 -22 -22 -21 -22 -22 -22 -23 -25 -27 -27 -24 -22 -22 -19 -19 -19 -19 -18 -20

GFSGL_850_dewp_132.txt.gz
Dewpoint
-5 -5 -4 -4 -1 0 2 5 6 7 8 8 7 6 6 9 11 12 12 12 11 11 11 11 11 11 11 11 11 11 11 11 11 7 7 6 6 8 8 7 8 9 9
-5 -5 -5 -5 -4 -2 1 2 5 7 7 7 6 4 7 9 9 12 12 12 11 12 11 11 11 11 11 11 11 11 11 9 10 7 8 6 7 8 8 8 8 9 9
-5 -5 -6 -6 -6 -5 -2 1 3 5 6 6 7 7 5 5 5 10 11 7 11 11 11 11 11 11 12 11 11 11 11 11 10 10 9 9 8 9 9 9 9 9 9
-5 -6 -6 -6 -6 -6 -5 -1 2 4 6 5 6 5 7 6 5 5 7 5 6 9 9 9 9 10 10 10 10 11 10 10 10 10 10 10 9 9 10 10 10 11 10
-6 -5 -5 -5 -6 -6 -5 -2 -1 2 2 3 3 3 3 4 3 5 5 5 6 6 6 7 5 6 8 7 8 9 9 10 9 10 10 10 10 10 9 10 10 10 10
-11 -8 -7 -6 -6 -6 -5 -4 -2 -1 0 1 1 1 1 -1 -1 1 3 3 3 2 3 2 4 5 6 6 6 7 7 8 8 8 8 9 9 9 9 10 10 10 10
-15 -17 -14 -10 -9 -8 -7 -8 -8 -6 -2 -1 -0 -0 -0 -1 -1 -1 0 1 1 2 1 1 2 2 2 3 3 4 4 5 5 6 6 6 7 7 8 8 9 9 9
-14 -18 -20 -20 -17 -14 -11 -10 -9 -10 -10 -10 -9 -9 -8 -7 -6 -4 -4 -4 -4 -3 -3 -3 -2 -2 -1 -1 -0 1 1 2 2 3 4 4 4 5 5 6 7 8 8
-12 -13 -16 -17 -21 -21 -21 -19 -18 -16 -14 -14 -13 -11 -11 -10 -10 -10 -9 -9 -7 -6 -6 -5 -4 -4 -3 -3 -2 -1 -1 -1 -0 0 1 1 1 2 2 3 4 5 6
-12 -12 -14 -16 -17 -20 -21 -22 -23 -23 -22 -22 -22 -21 -19 -17 -14 -12 -12 -11 -10 -10 -9 -9 -7 -6 -5 -5 -4 -4 -3 -3 -2 -2 -2 -1 -1 -0 1 1 1 2 3
-13 -14 -16 -17 -16 -18 -22 -23 -25 -27 -28 -28 -27 -25 -23 -23 -22 -22 -21 -18 -15 -12 -10 -10 -9 -8 -7 -6 -5 -5 -5 -5 -4 -4 -3 -3 -3 -3 -2 -1 -0 0 1
-17 -17 -17 -17 -17 -19 -21 -23 -25 -26 -28 -28 -29 -30 -28 -26 -24 -23 -22 -20 -19 -17 -15 -13 -11 -11 -10 -8 -7 -6 -6 -6 -5 -5 -5 -5 -5 -4 -4 -4 -3 -3 -2
-18 -17 -16 -16 -17 -19 -19 -19 -22 -24 -25 -23 -23 -24 -25 -28 -29 -26 -24 -22 -21 -20 -18 -14 -13 -12 -12 -11 -10 -8 -8 -7 -7 -7 -7 -6 -6 -6 -6 -5 -5 -4 -3
-19 -19 -19 -20 -20 -20 -20 -19 -19 -19 -17 -18 -19 -19 -20 -21 -19 -21 -24 -22 -21 -19 -18 -16 -16 -15 -13 -13 -13 -13 -11 -10 -9 -9 -8 -8 -8 -7 -7 -6 -6 -6 -5
-23 -22 -21 -20 -18 -17 -17 -17 -16 -16 -15 -14 -15 -15 -17 -17 -14 -14 -19 -16 -16 -15 -16 -17 -18 -19 -19 -19 -18 -16 -16 -14 -12 -11 -11 -10 -9 -9 -8 -8 -7 -7 -7
-20 -22 -21 -20 -18 -17 -16 -15 -14 -14 -14 -14 -15 -16 -16 -15 -14 -15 -21 -23 -24 -21 -20 -19 -18 -18 -19 -18 -18 -17 -16 -15 -14 -13 -13 -12 -12 -12 -10 -9 -9 -8 -8
-18 -17 -14 -14 -14 -15 -15 -15 -16 -17 -15 -15 -14 -15 -15 -15 -15 -19 -21 -22 -24 -25 -25 -23 -22 -20 -20 -20 -19 -17 -16 -15 -14 -13 -13 -13 -13 -13 -13 -12 -10 -10 -9
-18 -18 -17 -16 -15 -15 -16 -17 -17 -15 -15 -16 -16 -16 -17 -16 -16 -18 -19 -20 -23 -25 -24 -23 -22 -22 -21 -21 -21 -20 -18 -17 -16 -15 -14 -14 -13 -13 -13 -13 -13 -13 -12
-21 -20 -18 -18 -17 -17 -18 -18 -19 -18 -17 -18 -17 -17 -18 -18 -16 -16 -17 -18 -19 -20 -22 -23 -23 -23 -22 -21 -22 -22 -21 -19 -17 -16 -15 -15 -14 -14 -13 -14 -13 -14 -14
-20 -19 -18 -18 -18 -18 -18 -19 -18 -18 -19 -19 -19 -20 -19 -19 -18 -16 -17 -18 -18 -19 -20 -20 -21 -22 -23 -23 -24 -24 -24 -23 -21 -19 -17 -16 -15 -15 -14 -14 -14 -14 -15
-16 -17 -17 -19 -17 -17 -17 -18 -19 -19 -19 -19 -20 -21 -21 -21 -20 -19 -18 -18 -18 -19 -19 -20 -21 -23 -23 -23 -23 -24 -26 -27 -26 -24 -20 -17 -16 -15 -15 -15 -15 -14 -14
-15 -16 -18 -19 -19 -17 -16 -17 -17 -18 -18 -17 -17 -17 -18 -19 -21 -21 -21 -19 -19 -20 -19 -19 -21 -22 -22 -23 -23 -24 -25 -27 -28 -28 -22 -18 -17 -17 -16 -16 -16 -15 -15
-15 -17 -21 -20 -18 -18 -17 -17 -16 -16 -17 -17 -18 -16 -17 -17 -17 -17 -21 -22 -20 -20 -20 -20 -20 -21 -22 -22 -23 -23 -24 -25 -28 -29 -27 -19 -18 -17 -17 -17 -17 -17 -17
-19 -21 -21 -19 -18 -18 -17 -17 -17 -17 -18 -19 -18 -18 -19 -20 -20 -18 -18 -19 -21 -21 -21 -20 -21 -22 -23 -22 -22 -23 -23 -24 -26 -28 -26 -23 -19 -18 -18 -18 -17 -17 -18
-21 -22 -20 -19 -18 -17 -17 -18 -18 -18 -19 -19 -18 -19 -19 -19 -20 -20 -20 -18 -18 -21 -22 -22 -21 -21 -21 -21 -22 -23 -23 -23 -25 -27 -26 -23 -21 -20 -20 -19 -19 -18 -18
-25 -24 -22 -22 -23 -23 -21 -21 -20 -21 -21 -21 -21 -20 -20 -20 -20 -21 -22 -21 -19 -19 -21 -22 -22 -21 -21 -21 -22 -23 -23 -23 -25 -26 -25 -24 -22 -21 -21 -20 -19 -19 -19